Wetterdaten: Samstag, 29.01.2022
Datum Zeit Temp. Aussen Temp. o. S. Temp +5cm Feuchte Auss Luftdruck Regen Sonnenschein Regendauer Solar Windben Empfang
29.01.2022 00:00 5,4 C 5,0 C 2,2 C 92 % 1031,5 hPa 0,0 l/m 0 min 0 min 0 W/m 22,5 km/h (4 Bft) 97,87 %
29.01.2022 00:02 5,4 C 5,0 C 2,2 C 92 % 1031,4 hPa 0,0 l/m 0 min 0 min 0 W/m 19,3 km/h (3 Bft) 94,29 %
29.01.2022 00:04 5,3 C 5,0 C 2,2 C 92 % 1031,3 hPa 0,0 l/m 0 min 0 min 0 W/m 19,3 km/h (3 Bft) 95,74 %
29.01.2022 00:08 5,4 C 5,0 C 2,2 C 92 % 1031,2 hPa 0,0 l/m 0 min 0 min 0 W/m 25,7 km/h (4 Bft) 100,00 %
29.01.2022 00:10 5,3 C 5,0 C 2,2 C 92 % 1031,3 hPa 0,0 l/m 0 min 0 min 0 W/m 16,1 km/h (3 Bft) 97,83 %
29.01.2022 00:12 5,3 C 5,0 C 2,2 C 92 % 1031,2 hPa 0,0 l/m 0 min 0 min 0 W/m 22,5 km/h (4 Bft) 100,00 %
29.01.2022 00:14 5,3 C 5,0 C 2,2 C 92 % 1031,2 hPa 0,0 l/m 0 min 0 min 0 W/m 22,5 km/h (4 Bft) 100,00 %
29.01.2022 00:16 5,3 C 5,0 C 2,2 C 93 % 1031,1 hPa 0,0 l/m 0 min 0 min 0 W/m 22,5 km/h (4 Bft) 97,87 %
29.01.2022 00:18 5,3 C 5,0 C 2,2 C 92 % 1031,0 hPa 0,0 l/m 0 min 0 min 0 W/m 16,1 km/h (3 Bft) 100,00 %
29.01.2022 00:20 5,3 C 5,0 C 2,2 C 93 % 1031,0 hPa 0,0 l/m 0 min 0 min 0 W/m 19,3 km/h (3 Bft) 97,87 %
29.01.2022 00:22 5,3 C 5,0 C 2,2 C 93 % 1031,1 hPa 0,0 l/m 0 min 0 min 0 W/m 29,0 km/h (5 Bft) 97,83 %
29.01.2022 00:24 5,4 C 5,0 C 2,2 C 93 % 1031,0 hPa 0,0 l/m 0 min 0 min 0 W/m 25,7 km/h (4 Bft) 97,87 %
29.01.2022 00:26 5,4 C 5,0 C 2,2 C 93 % 1031,1 hPa 0,0 l/m 0 min 0 min 0 W/m 29,0 km/h (5 Bft) 100,00 %
29.01.2022 00:28 5,4 C 5,0 C 2,2 C 93 % 1030,9 hPa 0,0 l/m 0 min 0 min 0 W/m 19,3 km/h (3 Bft) 97,87 %
29.01.2022 00:30 5,4 C 5,0 C 2,2 C 93 % 1031,0 hPa 0,0 l/m 0 min 0 min 0 W/m 16,1 km/h (3 Bft) 100,00 %
29.01.2022 00:32 5,4 C 5,0 C 2,2 C 93 % 1031,0 hPa 0,0 l/m 0 min 0 min 0 W/m 19,3 km/h (3 Bft) 97,87 %
29.01.2022 00:34 5,4 C 5,0 C 2,2 C 93 % 1030,9 hPa 0,0 l/m 0 min 0 min 0 W/m 19,3 km/h (3 Bft) 97,83 %
29.01.2022 00:36 5,4 C 5,0 C 2,2 C 93 % 1031,0 hPa 0,0 l/m 0 min 0 min 0 W/m 19,3 km/h (3 Bft) 97,87 %
29.01.2022 00:38 5,4 C 5,0 C 2,2 C 93 % 1030,8 hPa 0,0 l/m 0 min 0 min 0 W/m 22,5 km/h (4 Bft) 97,87 %
29.01.2022 00:40 5,4 C 5,0 C 2,2 C 93 % 1030,7 hPa 0,0 l/m 0 min 0 min 0 W/m 16,1 km/h (3 Bft) 95,74 %
29.01.2022 00:42 5,4 C 5,0 C 2,2 C 93 % 1030,8 hPa 0,0 l/m 0 min 0 min 0 W/m 22,5 km/h (4 Bft) 97,87 %
29.01.2022 00:44 5,4 C 5,0 C 2,2 C 93 % 1030,7 hPa 0,0 l/m 0 min 0 min 0 W/m 25,7 km/h (4 Bft) 97,87 %
29.01.2022 00:46 5,4 C 5,0 C 2,2 C 93 % 1030,7 hPa 0,0 l/m 0 min 0 min 0 W/m 16,1 km/h (3 Bft) 97,83 %
29.01.2022 00:48 5,4 C 5,0 C 2,2 C 93 % 1030,6 hPa 0,0 l/m 0 min 0 min 0 W/m 16,1 km/h (3 Bft) 97,87 %
29.01.2022 00:50 5,4 C 5,0 C 2,2 C 93 % 1030,7 hPa 0,0 l/m 0 min 0 min 0 W/m 22,5 km/h (4 Bft) 95,74 %
29.01.2022 00:52 5,4 C 5,0 C 2,2 C 93 % 1030,7 hPa 0,0 l/m 0 min 0 min 0 W/m 12,9 km/h (3 Bft) 95,74 %
29.01.2022 00:54 5,4 C 5,0 C 2,2 C 93 % 1030,7 hPa 0,0 l/m 0 min 0 min 0 W/m 22,5 km/h (4 Bft) 97,87 %
29.01.2022 00:56 5,5 C 5,0 C 2,2 C 93 % 1030,8 hPa 0,0 l/m 0 min 0 min 0 W/m 19,3 km/h (3 Bft) 95,74 %
29.01.2022 00:58 5,5 C 5,0 C 2,2 C 93 % 1030,7 hPa 0,0 l/m 0 min 0 min 0 W/m 6,4 km/h (2 Bft) 97,83 %
29.01.2022 01:00 5,5 C 5,0 C 2,2 C 93 % 1030,7 hPa 0,0 l/m 0 min 0 min 0 W/m 12,9 km/h (3 Bft) 97,87 %
29.01.2022 01:02 5,5 C 5,0 C 2,2 C 93 % 1030,6 hPa 0,0 l/m 0 min 0 min 0 W/m 12,9 km/h (3 Bft) 97,92 %
29.01.2022 01:04 5,5 C 5,0 C 2,2 C 93 % 1030,6 hPa 0,0 l/m 0 min 0 min 0 W/m 16,1 km/h (3 Bft) 97,87 %
29.01.2022 01:06 5,5 C 5,0 C 2,2 C 93 % 1030,6 hPa 0,0 l/m 0 min 0 min 0 W/m 22,5 km/h (4 Bft) 95,74 %
29.01.2022 01:08 5,6 C 5,0 C 2,2 C 93 % 1030,7 hPa 0,0 l/m 0 min 0 min 0 W/m 16,1 km/h (3 Bft) 95,65 %
29.01.2022 01:10 5,6 C 5,0 C 2,2 C 93 % 1030,5 hPa 0,0 l/m 0 min 0 min 0 W/m 16,1 km/h (3 Bft) 95,74 %
29.01.2022 01:12 5,6 C 5,0 C 2,2 C 93 % 1030,5 hPa 0,0 l/m 0 min 0 min 0 W/m 22,5 km/h (4 Bft) 97,87 %
29.01.2022 01:14 5,6 C 5,0 C 2,2 C 93 % 1030,5 hPa 0,0 l/m 0 min 0 min 0 W/m 25,7 km/h (4 Bft) 97,87 %
29.01.2022 01:16 5,6 C 5,0 C 2,2 C 93 % 1030,4 hPa 0,0 l/m 0 min 0 min 0 W/m 22,5 km/h (4 Bft) 95,74 %
29.01.2022 01:18 5,6 C 5,0 C 2,2 C 93 % 1030,4 hPa 0,0 l/m 0 min 0 min 0 W/m 16,1 km/h (3 Bft) 95,74 %
29.01.2022 01:20 5,6 C 5,0 C 2,2 C 93 % 1030,3 hPa 0,0 l/m 0 min 0 min 0 W/m 12,9 km/h (3 Bft) 97,83 %
29.01.2022 01:22 5,6 C 5,0 C 2,2 C 93 % 1030,3 hPa 0,0 l/m 0 min 0 min 0 W/m 19,3 km/h (3 Bft) 97,87 %
29.01.2022 01:24 5,6 C 5,0 C 2,2 C 93 % 1030,3 hPa 0,0 l/m 0 min 0 min 0 W/m 19,3 km/h (3 Bft) 97,87 %
29.01.2022 01:26 5,6 C 5,0 C 2,2 C 93 % 1030,3 hPa 0,0 l/m 0 min 0 min 0 W/m 22,5 km/h (4 Bft) 97,87 %
29.01.2022 01:28 5,6 C 5,0 C 2,2 C 93 % 1030,3 hPa 0,0 l/m 0 min 0 min 0 W/m 12,9 km/h (3 Bft) 97,87 %
29.01.2022 01:30 5,6 C 5,0 C 2,2 C 93 % 1030,2 hPa 0,0 l/m 0 min 0 min 0 W/m 19,3 km/h (3 Bft) 100,00 %
29.01.2022 01:32 5,7 C 5,0 C 2,8 C 93 % 1030,2 hPa 0,0 l/m 0 min 0 min 0 W/m 25,7 km/h (4 Bft) 97,83 %
29.01.2022 01:34 5,7 C 5,0 C 2,2 C 93 % 1030,3 hPa 0,0 l/m 0 min 0 min 0 W/m 9,7 km/h (2 Bft) 97,87 %
29.01.2022 01:36 5,7 C 5,0 C 2,2 C 93 % 1030,2 hPa 0,0 l/m 0 min 0 min 0 W/m 16,1 km/h (3 Bft) 95,74 %
29.01.2022 01:38 5,6 C 5,0 C 2,2 C 93 % 1030,3 hPa 0,0 l/m 0 min 0 min 0 W/m 22,5 km/h (4 Bft) 97,87 %
29.01.2022 01:40 5,7 C 5,0 C 2,8 C 93 % 1030,2 hPa 0,0 l/m 0 min 0 min 0 W/m 16,1 km/h (3 Bft) 97,87 %
29.01.2022 01:42 5,7 C 5,0 C 2,8 C 93 % 1030,2 hPa 0,0 l/m 0 min 0 min 0 W/m 12,9 km/h (3 Bft) 95,74 %
29.01.2022 01:44 5,7 C 5,0 C 2,8 C 94 % 1030,2 hPa 0,0 l/m 0 min 0 min 0 W/m 16,1 km/h (3 Bft) 97,83 %
29.01.2022 01:46 5,7 C 5,0 C 2,8 C 94 % 1030,2 hPa 0,0 l/m 0 min 0 min 0 W/m 12,9 km/h (3 Bft) 97,87 %
29.01.2022 01:48 5,7 C 5,0 C 2,8 C 94 % 1030,2 hPa 0,0 l/m 0 min 0 min 0 W/m 16,1 km/h (3 Bft) 97,87 %
29.01.2022 01:50 5,7 C 5,0 C 2,8 C 94 % 1030,1 hPa 0,0 l/m 0 min 0 min 0 W/m 12,9 km/h (3 Bft) 100,00 %
29.01.2022 01:52 5,7 C 5,0 C 2,8 C 94 % 1030,1 hPa 0,0 l/m 0 min 0 min 0 W/m 9,7 km/h (2 Bft) 100,00 %
29.01.2022 01:54 5,7 C 5,0 C 2,8 C 94 % 1030,1 hPa 0,0 l/m 0 min 0 min 0 W/m 16,1 km/h (3 Bft) 100,00 %
29.01.2022 01:56 5,7 C 5,0 C 2,8 C 94 % 1030,1 hPa 0,0 l/m 0 min 0 min 0 W/m 16,1 km/h (3 Bft) 100,00 %
29.01.2022 01:58 5,7 C 5,0 C 2,8 C 94 % 1030,0 hPa 0,0 l/m 0 min 0 min 0 W/m 19,3 km/h (3 Bft) 100,00 %
29.01.2022 02:00 5,7 C 5,0 C 2,8 C 94 % 1030,0 hPa 0,0 l/m 0 min 0 min 0 W/m 16,1 km/h (3 Bft) 97,87 %
29.01.2022 02:02 5,7 C 5,0 C 2,8 C 94 % 1030,0 hPa 0,0 l/m 0 min 0 min 0 W/m 12,9 km/h (3 Bft) 100,00 %
29.01.2022 02:04 5,7 C 5,0 C 2,8 C 94 % 1029,9 hPa 0,0 l/m 0 min 0 min 0 W/m 16,1 km/h (3 Bft) 100,00 %
29.01.2022 02:06 5,7 C 5,0 C 2,8 C 94 % 1030,0 hPa 0,0 l/m 0 min 0 min 0 W/m 16,1 km/h (3 Bft) 98,18 %
29.01.2022 02:08 5,7 C 5,0 C 2,8 C 94 % 1030,0 hPa 0,0 l/m 0 min 0 min 0 W/m 16,1 km/h (3 Bft) 95,74 %
29.01.2022 02:10 5,7 C 5,0 C 2,8 C 94 % 1029,8 hPa 0,0 l/m 0 min 0 min 0 W/m 16,1 km/h (3 Bft) 97,87 %
29.01.2022 02:12 5,7 C 5,0 C 2,8 C 94 % 1029,7 hPa 0,0 l/m 0 min 0 min 0 W/m 25,7 km/h (4 Bft) 97,83 %
29.01.2022 02:14 5,7 C 5,0 C 2,8 C 94 % 1029,5 hPa 0,0 l/m 0 min 0 min 0 W/m 19,3 km/h (3 Bft) 97,87 %
29.01.2022 02:16 5,7 C 5,0 C 2,8 C 94 % 1029,5 hPa 0,0 l/m 0 min 0 min 0 W/m 19,3 km/h (3 Bft) 97,87 %
29.01.2022 02:18 5,7 C 5,0 C 2,8 C 93 % 1029,4 hPa 0,0 l/m 0 min 0 min 0 W/m 22,5 km/h (4 Bft) 97,87 %
29.01.2022 02:20 5,7 C 5,0 C 2,8 C 93 % 1029,3 hPa 0,0 l/m 0 min 0 min 0 W/m 22,5 km/h (4 Bft) 97,87 %
29.01.2022 02:22 5,7 C 5,0 C 2,8 C 93 % 1029,3 hPa 0,0 l/m 0 min 0 min 0 W/m 22,5 km/h (4 Bft) 95,74 %
29.01.2022 02:24 5,7 C 5,0 C 2,8 C 93 % 1029,3 hPa 0,0 l/m 0 min 0 min 0 W/m 22,5 km/h (4 Bft) 97,83 %
29.01.2022 02:26 5,7 C 5,0 C 2,8 C 93 % 1029,3 hPa 0,0 l/m 0 min 0 min 0 W/m 19,3 km/h (3 Bft) 95,74 %
29.01.2022 02:28 5,7 C 5,0 C 2,8 C 93 % 1029,4 hPa 0,0 l/m 0 min 0 min 0 W/m 22,5 km/h (4 Bft) 95,74 %
29.01.2022 02:30 5,7 C 5,0 C 2,8 C 93 % 1029,4 hPa 0,0 l/m 0 min 0 min 0 W/m 12,9 km/h (3 Bft) 97,87 %
29.01.2022 02:32 5,7 C 5,0 C 2,8 C 93 % 1029,5 hPa 0,0 l/m 0 min 0 min 0 W/m 16,1 km/h (3 Bft) 95,83 %
29.01.2022 02:34 5,7 C 5,0 C 2,8 C 93 % 1029,4 hPa 0,0 l/m 0 min 0 min 0 W/m 22,5 km/h (4 Bft) 97,87 %
29.01.2022 02:36 5,7 C 5,0 C 2,8 C 93 % 1029,3 hPa 0,0 l/m 0 min 0 min 0 W/m 16,1 km/h (3 Bft) 95,65 %
29.01.2022 02:38 5,8 C 5,0 C 2,8 C 93 % 1029,2 hPa 0,0 l/m 0 min 0 min 0 W/m 12,9 km/h (3 Bft) 97,37 %
29.01.2022 02:40 5,8 C 5,0 C 2,8 C 93 % 1029,2 hPa 0,0 l/m 0 min 0 min 0 W/m 16,1 km/h (3 Bft) 97,87 %
29.01.2022 02:42 5,8 C 5,0 C 2,8 C 93 % 1029,2 hPa 0,0 l/m 0 min 0 min 0 W/m 12,9 km/h (3 Bft) 95,74 %
29.01.2022 02:44 5,8 C 5,0 C 2,8 C 93 % 1029,2 hPa 0,0 l/m 0 min 0 min 0 W/m 16,1 km/h (3 Bft) 97,83 %
29.01.2022 02:46 5,8 C 5,0 C 2,8 C 93 % 1029,0 hPa 0,0 l/m 0 min 0 min 0 W/m 25,7 km/h (4 Bft) 97,87 %
29.01.2022 02:48 5,8 C 5,0 C 2,8 C 93 % 1029,1 hPa 0,0 l/m 0 min 0 min 0 W/m 12,9 km/h (3 Bft) 97,87 %
29.01.2022 02:50 5,8 C 5,0 C 2,8 C 93 % 1029,0 hPa 0,0 l/m 0 min 0 min 0 W/m 12,9 km/h (3 Bft) 97,87 %
29.01.2022 02:52 5,8 C 5,0 C 2,8 C 93 % 1029,1 hPa 0,0 l/m 0 min 0 min 0 W/m 25,7 km/h (4 Bft) 97,87 %
29.01.2022 02:54 5,8 C 5,0 C 2,8 C 93 % 1029,0 hPa 0,0 l/m 0 min 0 min 0 W/m 16,1 km/h (3 Bft) 97,87 %
29.01.2022 02:56 5,8 C 5,0 C 2,8 C 93 % 1029,0 hPa 0,0 l/m 0 min 0 min 0 W/m 19,3 km/h (3 Bft) 97,83 %
29.01.2022 02:58 5,8 C 5,0 C 2,8 C 93 % 1028,9 hPa 0,0 l/m 0 min 0 min 0 W/m 19,3 km/h (3 Bft) 100,00 %
29.01.2022 03:00 5,8 C 5,0 C 2,8 C 93 % 1028,9 hPa 0,0 l/m 0 min 0 min 0 W/m 19,3 km/h (3 Bft) 93,62 %
29.01.2022 03:02 5,8 C 5,0 C 2,8 C 93 % 1028,9 hPa 0,0 l/m 0 min 0 min 0 W/m 25,7 km/h (4 Bft) 100,00 %
29.01.2022 03:04 5,8 C 5,0 C 2,8 C 93 % 1028,8 hPa 0,0 l/m 0 min 0 min 0 W/m 16,1 km/h (3 Bft) 100,00 %
29.01.2022 03:06 5,8 C 5,0 C 2,8 C 93 % 1028,8 hPa 0,0 l/m 0 min 0 min 0 W/m 19,3 km/h (3 Bft) 100,00 %
29.01.2022 03:08 5,8 C 5,0 C 2,8 C 93 % 1028,9 hPa 0,0 l/m 0 min 0 min 0 W/m 19,3 km/h (3 Bft) 97,83 %
29.01.2022 03:10 5,8 C 5,0 C 2,8 C 93 % 1028,8 hPa 0,0 l/m 0 min 0 min 0 W/m 16,1 km/h (3 Bft) 93,62 %
29.01.2022 03:12 5,8 C 5,0 C 2,8 C 93 % 1028,8 hPa 0,0 l/m 0 min 0 min 0 W/m 12,9 km/h (3 Bft) 97,87 %
29.01.2022 03:14 5,8 C 5,0 C 2,8 C 93 % 1028,6 hPa 0,0 l/m 0 min 0 min 0 W/m 19,3 km/h (3 Bft) 95,74 %
29.01.2022 03:16 5,8 C 5,0 C 2,8 C 93 % 1028,7 hPa 0,0 l/m 0 min 0 min 0 W/m 19,3 km/h (3 Bft) 95,74 %
29.01.2022 03:18 5,8 C 5,0 C 2,8 C 93 % 1028,6 hPa 0,0 l/m 0 min 0 min 0 W/m 19,3 km/h (3 Bft) 95,65 %
29.01.2022 03:20 5,8 C 5,0 C 2,8 C 93 % 1028,6 hPa 0,0 l/m 0 min 0 min 0 W/m 19,3 km/h (3 Bft) 95,74 %
29.01.2022 03:22 5,8 C 5,0 C 2,8 C 93 % 1028,6 hPa 0,0 l/m 0 min 0 min 0 W/m 22,5 km/h (4 Bft) 95,74 %
29.01.2022 03:24 5,8 C 5,0 C 2,8 C 93 % 1028,5 hPa 0,0 l/m 0 min 0 min 0 W/m 19,3 km/h (3 Bft) 95,74 %
29.01.2022 03:26 5,8 C 5,0 C 2,8 C 93 % 1028,5 hPa 0,0 l/m 0 min 0 min 0 W/m 19,3 km/h (3 Bft) 95,74 %
29.01.2022 03:28 5,8 C 5,0 C 2,8 C 93 % 1028,6 hPa 0,0 l/m 0 min 0 min 0 W/m 19,3 km/h (3 Bft) 95,74 %
29.01.2022 03:30 5,8 C 5,0 C 2,8 C 94 % 1028,5 hPa 0,0 l/m 0 min 0 min 0 W/m 12,9 km/h (3 Bft) 93,48 %
29.01.2022 03:32 5,8 C 5,0 C 2,8 C 94 % 1028,5 hPa 0,0 l/m 0 min 0 min 0 W/m 16,1 km/h (3 Bft) 95,74 %
29.01.2022 03:34 5,8 C 5,0 C 2,8 C 94 % 1028,4 hPa 0,0 l/m 0 min 0 min 0 W/m 12,9 km/h (3 Bft) 93,62 %
29.01.2022 03:36 5,8 C 5,0 C 2,8 C 94 % 1028,4 hPa 0,0 l/m 0 min 0 min 0 W/m 19,3 km/h (3 Bft) 93,62 %
29.01.2022 03:38 5,8 C 5,0 C 2,8 C 94 % 1028,4 hPa 0,0 l/m 0 min 0 min 0 W/m 16,1 km/h (3 Bft) 93,62 %
29.01.2022 03:40 5,8 C 5,0 C 2,8 C 94 % 1028,4 hPa 0,0 l/m 0 min 0 min 0 W/m 16,1 km/h (3 Bft) 93,62 %
29.01.2022 03:42 5,8 C 5,0 C 2,8 C 94 % 1028,4 hPa 0,0 l/m 0 min 0 min 0 W/m 6,4 km/h (2 Bft) 95,65 %
29.01.2022 03:44 5,8 C 5,0 C 2,8 C 94 % 1028,3 hPa 0,0 l/m 0 min 0 min 0 W/m 16,1 km/h (3 Bft) 97,87 %
29.01.2022 03:46 5,8 C 5,0 C 2,8 C 94 % 1028,2 hPa 0,0 l/m 0 min 0 min 0 W/m 19,3 km/h (3 Bft) 93,62 %
29.01.2022 03:48 5,8 C 5,0 C 2,8 C 94 % 1028,2 hPa 0,0 l/m 0 min 0 min 0 W/m 12,9 km/h (3 Bft) 97,87 %
29.01.2022 03:50 5,8 C 5,0 C 2,8 C 94 % 1028,1 hPa 0,0 l/m 0 min 0 min 0 W/m 25,7 km/h (4 Bft) 97,87 %
29.01.2022 03:52 5,8 C 5,0 C 2,8 C 94 % 1028,2 hPa 0,0 l/m 0 min 0 min 0 W/m 19,3 km/h (3 Bft) 97,87 %
29.01.2022 03:54 5,7 C 5,0 C 2,8 C 94 % 1028,1 hPa 0,0 l/m 0 min 0 min 0 W/m 16,1 km/h (3 Bft) 97,83 %
29.01.2022 03:56 5,7 C 5,0 C 2,8 C 94 % 1028,1 hPa 0,0 l/m 0 min 0 min 0 W/m 12,9 km/h (3 Bft) 100,00 %
29.01.2022 03:58 5,8 C 5,0 C 2,8 C 94 % 1028,1 hPa 0,0 l/m 0 min 0 min 0 W/m 19,3 km/h (3 Bft) 97,87 %
29.01.2022 04:00 5,8 C 5,0 C 2,8 C 94 % 1028,1 hPa 0,0 l/m 0 min 0 min 0 W/m 19,3 km/h (3 Bft) 100,00 %
29.01.2022 04:02 5,8 C 5,0 C 2,8 C 94 % 1028,0 hPa 0,0 l/m 0 min 0 min 0 W/m 16,1 km/h (3 Bft) 95,24 %
29.01.2022 04:04 5,8 C 5,0 C 2,8 C 94 % 1028,0 hPa 0,0 l/m 0 min 0 min 0 W/m 19,3 km/h (3 Bft) 100,00 %
29.01.2022 04:06 5,8 C 5,0 C 2,8 C 95 % 1027,9 hPa 0,0 l/m 0 min 0 min 0 W/m 19,3 km/h (3 Bft) 97,83 %
29.01.2022 04:08 5,8 C 5,0 C 2,8 C 95 % 1028,0 hPa 0,0 l/m 0 min 0 min 0 W/m 22,5 km/h (4 Bft) 97,87 %
29.01.2022 04:10 5,8 C 5,0 C 2,8 C 95 % 1027,9 hPa 0,0 l/m 0 min 0 min 0 W/m 19,3 km/h (3 Bft) 100,00 %
29.01.2022 04:12 5,8 C 5,0 C 2,8 C 95 % 1027,9 hPa 0,0 l/m 0 min 0 min 0 W/m 22,5 km/h (4 Bft) 100,00 %
29.01.2022 04:14 5,8 C 5,0 C 2,8 C 95 % 1027,9 hPa 0,0 l/m 0 min 0 min 0 W/m 9,7 km/h (2 Bft) 100,00 %
29.01.2022 04:16 5,8 C 5,0 C 2,8 C 95 % 1027,8 hPa 0,0 l/m 0 min 0 min 0 W/m 16,1 km/h (3 Bft) 97,87 %
29.01.2022 04:18 5,8 C 5,0 C 2,8 C 95 % 1027,7 hPa 0,0 l/m 0 min 0 min 0 W/m 16,1 km/h (3 Bft) 100,00 %
29.01.2022 04:20 5,8 C 5,0 C 2,8 C 95 % 1027,7 hPa 0,0 l/m 0 min 0 min 0 W/m 16,1 km/h (3 Bft) 100,00 %
29.01.2022 04:22 5,8 C 5,0 C 2,8 C 95 % 1027,7 hPa 0,0 l/m 0 min 0 min 0 W/m 9,7 km/h (2 Bft) 97,87 %
29.01.2022 04:24 5,8 C 5,0 C 2,8 C 95 % 1027,6 hPa 0,0 l/m 0 min 0 min 0 W/m 19,3 km/h (3 Bft) 100,00 %
29.01.2022 04:26 5,8 C 5,0 C 2,8 C 95 % 1027,5 hPa 0,0 l/m 0 min 0 min 0 W/m 16,1 km/h (3 Bft) 100,00 %
29.01.2022 04:28 5,8 C 5,0 C 2,8 C 95 % 1027,6 hPa 0,0 l/m 0 min 0 min 0 W/m 12,9 km/h (3 Bft) 100,00 %
29.01.2022 04:30 5,8 C 5,0 C 2,8 C 95 % 1027,6 hPa 0,0 l/m 0 min 0 min 0 W/m 22,5 km/h (4 Bft) 100,00 %
29.01.2022 04:32 5,8 C 5,0 C 2,8 C 95 % 1027,6 hPa 0,0 l/m 0 min 0 min 0 W/m 41,8 km/h (6 Bft) 97,87 %
29.01.2022 04:34 5,8 C 5,0 C 2,8 C 95 % 1027,5 hPa 0,0 l/m 0 min 0 min 0 W/m 35,4 km/h (5 Bft) 100,00 %
29.01.2022 04:36 5,8 C 5,0 C 2,8 C 95 % 1027,5 hPa 0,0 l/m 0 min 0 min 0 W/m 22,5 km/h (4 Bft) 100,00 %
29.01.2022 04:38 5,8 C 5,0 C 2,8 C 95 % 1027,5 hPa 0,0 l/m 0 min 0 min 0 W/m 19,3 km/h (3 Bft) 100,00 %
29.01.2022 04:40 5,8 C 5,0 C 2,8 C 95 % 1027,5 hPa 0,0 l/m 0 min 0 min 0 W/m 22,5 km/h (4 Bft) 100,00 %
29.01.2022 04:42 5,8 C 5,6 C 2,8 C 95 % 1027,5 hPa 0,0 l/m 0 min 0 min 0 W/m 12,9 km/h (3 Bft) 100,00 %
29.01.2022 04:44 5,8 C 5,6 C 2,8 C 95 % 1027,5 hPa 0,0 l/m 0 min 0 min 0 W/m 12,9 km/h (3 Bft) 100,00 %
29.01.2022 04:46 5,8 C 5,6 C 2,8 C 95 % 1027,5 hPa 0,0 l/m 0 min 0 min 0 W/m 22,5 km/h (4 Bft) 100,00 %
29.01.2022 04:48 5,9 C 5,6 C 2,8 C 95 % 1027,5 hPa 0,0 l/m 0 min 0 min 0 W/m 16,1 km/h (3 Bft) 100,00 %
29.01.2022 04:50 5,9 C 5,6 C 2,8 C 95 % 1027,5 hPa 0,0 l/m 0 min 0 min 0 W/m 22,5 km/h (4 Bft) 100,00 %
29.01.2022 04:52 5,9 C 5,6 C 2,8 C 95 % 1027,5 hPa 0,0 l/m 0 min 0 min 0 W/m 16,1 km/h (3 Bft) 100,00 %
29.01.2022 04:54 5,9 C 5,6 C 2,8 C 95 % 1027,4 hPa 0,0 l/m 0 min 0 min 0 W/m 29,0 km/h (5 Bft) 100,00 %
29.01.2022 04:56 5,9 C 5,6 C 2,8 C 95 % 1027,4 hPa 0,0 l/m 0 min 0 min 0 W/m 19,3 km/h (3 Bft) 100,00 %
29.01.2022 04:58 5,9 C 5,6 C 2,8 C 95 % 1027,3 hPa 0,0 l/m 0 min 0 min 0 W/m 19,3 km/h (3 Bft) 100,00 %
29.01.2022 05:00 5,9 C 5,6 C 2,8 C 95 % 1027,4 hPa 0,0 l/m 0 min 0 min 0 W/m 22,5 km/h (4 Bft) 95,74 %
29.01.2022 05:02 5,9 C 5,6 C 2,8 C 95 % 1027,4 hPa 0,0 l/m 0 min 0 min 0 W/m 19,3 km/h (3 Bft) 95,74 %
29.01.2022 05:04 5,9 C 5,6 C 2,8 C 95 % 1027,3 hPa 0,0 l/m 0 min 0 min 0 W/m 25,7 km/h (4 Bft) 97,83 %
29.01.2022 05:06 6,0 C 5,6 C 2,8 C 95 % 1027,3 hPa 0,0 l/m 0 min 0 min 0 W/m 19,3 km/h (3 Bft) 97,87 %
29.01.2022 05:08 6,0 C 5,6 C 2,8 C 95 % 1027,3 hPa 0,0 l/m 0 min 0 min 0 W/m 16,1 km/h (3 Bft) 95,74 %
29.01.2022 05:10 6,0 C 5,6 C 2,8 C 95 % 1027,3 hPa 0,0 l/m 0 min 0 min 0 W/m 22,5 km/h (4 Bft) 97,87 %
29.01.2022 05:12 6,0 C 5,6 C 2,8 C 95 % 1027,1 hPa 0,0 l/m 0 min 0 min 0 W/m 19,3 km/h (3 Bft) 93,62 %
29.01.2022 05:14 6,0 C 5,6 C 2,8 C 95 % 1027,1 hPa 0,0 l/m 0 min 0 min 0 W/m 16,1 km/h (3 Bft) 95,74 %
29.01.2022 05:16 6,0 C 5,6 C 2,8 C 96 % 1027,1 hPa 0,0 l/m 0 min 0 min 0 W/m 12,9 km/h (3 Bft) 95,65 %
29.01.2022 05:18 6,0 C 5,6 C 2,8 C 96 % 1027,2 hPa 0,0 l/m 0 min 0 min 0 W/m 12,9 km/h (3 Bft) 93,62 %
29.01.2022 05:20 6,0 C 5,6 C 2,8 C 96 % 1027,2 hPa 0,0 l/m 0 min 0 min 0 W/m 9,7 km/h (2 Bft) 95,74 %
29.01.2022 05:22 6,0 C 5,6 C 2,8 C 96 % 1027,2 hPa 0,0 l/m 0 min 0 min 0 W/m 16,1 km/h (3 Bft) 95,74 %
29.01.2022 05:24 6,0 C 5,6 C 2,8 C 96 % 1027,2 hPa 0,0 l/m 0 min 0 min 0 W/m 16,1 km/h (3 Bft) 95,74 %
29.01.2022 05:26 6,0 C 5,0 C 2,8 C 96 % 1027,2 hPa 0,0 l/m 0 min 0 min 0 W/m 16,1 km/h (3 Bft) 95,74 %
29.01.2022 05:28 6,0 C 5,0 C 2,8 C 96 % 1027,2 hPa 0,0 l/m 0 min 0 min 0 W/m 12,9 km/h (3 Bft) 93,48 %
29.01.2022 05:30 6,0 C 5,0 C 2,8 C 96 % 1027,3 hPa 0,0 l/m 0 min 0 min 0 W/m 25,7 km/h (4 Bft) 95,74 %
29.01.2022 05:32 6,0 C 5,0 C 2,8 C 96 % 1027,2 hPa 0,0 l/m 0 min 0 min 0 W/m 12,9 km/h (3 Bft) 95,74 %
29.01.2022 05:34 6,0 C 5,0 C 2,8 C 96 % 1027,2 hPa 0,0 l/m 0 min 0 min 0 W/m 12,9 km/h (3 Bft) 93,62 %
29.01.2022 05:36 6,0 C 5,0 C 2,8 C 96 % 1027,2 hPa 0,0 l/m 0 min 0 min 0 W/m 16,1 km/h (3 Bft) 91,49 %
29.01.2022 05:38 6,0 C 5,0 C 2,8 C 96 % 1027,3 hPa 0,0 l/m 0 min 0 min 0 W/m 19,3 km/h (3 Bft) 95,74 %
29.01.2022 05:40 6,0 C 5,0 C 2,8 C 96 % 1027,2 hPa 0,0 l/m 0 min 0 min 0 W/m 16,1 km/h (3 Bft) 95,65 %
29.01.2022 05:42 5,9 C 5,0 C 2,8 C 96 % 1027,2 hPa 0,0 l/m 0 min 0 min 0 W/m 16,1 km/h (3 Bft) 94,44 %
29.01.2022 05:44 5,9 C 5,0 C 2,8 C 96 % 1027,2 hPa 0,0 l/m 0 min 0 min 0 W/m 16,1 km/h (3 Bft) 95,74 %
29.01.2022 05:46 5,9 C 5,0 C 2,8 C 96 % 1027,2 hPa 0,0 l/m 0 min 0 min 0 W/m 12,9 km/h (3 Bft) 95,65 %
29.01.2022 05:48 5,9 C 5,0 C 2,8 C 96 % 1027,2 hPa 0,0 l/m 0 min 0 min 0 W/m 12,9 km/h (3 Bft) 97,87 %
29.01.2022 05:50 5,9 C 5,0 C 2,8 C 96 % 1027,2 hPa 0,0 l/m 0 min 0 min 0 W/m 12,9 km/h (3 Bft) 95,74 %
29.01.2022 05:52 5,9 C 5,0 C 2,8 C 97 % 1027,2 hPa 0,0 l/m 0 min 0 min 0 W/m 22,5 km/h (4 Bft) 97,87 %
29.01.2022 05:54 5,9 C 5,0 C 2,8 C 97 % 1027,1 hPa 0,0 l/m 0 min 0 min 0 W/m 19,3 km/h (3 Bft) 97,87 %
29.01.2022 05:56 5,9 C 5,0 C 2,8 C 97 % 1027,0 hPa 0,0 l/m 0 min 0 min 0 W/m 19,3 km/h (3 Bft) 95,74 %
29.01.2022 05:58 5,9 C 5,0 C 2,8 C 97 % 1027,1 hPa 0,0 l/m 0 min 0 min 0 W/m 12,9 km/h (3 Bft) 97,83 %
29.01.2022 06:00 5,9 C 5,0 C 2,8 C 97 % 1027,0 hPa 0,0 l/m 0 min 0 min 0 W/m 12,9 km/h (3 Bft) 93,62 %
29.01.2022 06:02 5,9 C 5,0 C 2,8 C 97 % 1027,1 hPa 0,0 l/m 0 min 0 min 0 W/m 16,1 km/h (3 Bft) 95,74 %
29.01.2022 06:04 5,9 C 5,0 C 2,8 C 97 % 1027,0 hPa 0,0 l/m 0 min 0 min 0 W/m 12,9 km/h (3 Bft) 97,87 %
29.01.2022 06:08 6,0 C 5,6 C 2,8 C 97 % 1027,0 hPa 0,0 l/m 0 min 0 min 0 W/m 22,5 km/h (4 Bft) 97,87 %
29.01.2022 06:10 6,0 C 5,6 C 2,8 C 97 % 1027,0 hPa 0,0 l/m 0 min 0 min 0 W/m 16,1 km/h (3 Bft) 97,87 %
29.01.2022 06:12 6,0 C 5,6 C 2,8 C 97 % 1026,9 hPa 0,0 l/m 0 min 0 min 0 W/m 12,9 km/h (3 Bft) 95,74 %
29.01.2022 06:14 6,0 C 5,6 C 2,8 C 97 % 1026,9 hPa 0,0 l/m 0 min 0 min 0 W/m 12,9 km/h (3 Bft) 97,87 %
29.01.2022 06:16 6,0 C 5,6 C 2,8 C 97 % 1026,9 hPa 0,0 l/m 0 min 0 min 0 W/m 16,1 km/h (3 Bft) 97,87 %
29.01.2022 06:18 6,0 C 5,6 C 2,8 C 97 % 1026,9 hPa 0,0 l/m 0 min 0 min 0 W/m 12,9 km/h (3 Bft) 95,74 %
29.01.2022 06:20 6,0 C 5,6 C 2,8 C 97 % 1026,9 hPa 0,0 l/m 0 min 0 min 0 W/m 12,9 km/h (3 Bft) 97,83 %
29.01.2022 06:22 6,0 C 5,6 C 2,8 C 97 % 1026,8 hPa 0,0 l/m 0 min 0 min 0 W/m 16,1 km/h (3 Bft) 95,74 %
29.01.2022 06:24 6,0 C 5,6 C 2,8 C 97 % 1026,8 hPa 0,0 l/m 0 min 0 min 0 W/m 25,7 km/h (4 Bft) 97,87 %
29.01.2022 06:26 6,1 C 5,6 C 2,8 C 97 % 1026,8 hPa 0,0 l/m 0 min 0 min 0 W/m 12,9 km/h (3 Bft) 97,87 %
29.01.2022 06:28 6,1 C 5,6 C 2,8 C 97 % 1026,8 hPa 0,0 l/m 0 min 0 min 0 W/m 16,1 km/h (3 Bft) 95,74 %
29.01.2022 06:30 6,1 C 5,6 C 2,8 C 97 % 1026,8 hPa 0,0 l/m 0 min 0 min 0 W/m 12,9 km/h (3 Bft) 97,87 %
29.01.2022 06:32 6,1 C 5,6 C 3,3 C 97 % 1026,8 hPa 0,0 l/m 0 min 0 min 0 W/m 16,1 km/h (3 Bft) 97,83 %
29.01.2022 06:34 6,1 C 5,6 C 3,3 C 97 % 1026,8 hPa 0,0 l/m 0 min 0 min 0 W/m 19,3 km/h (3 Bft) 97,87 %
29.01.2022 06:36 6,1 C 5,6 C 3,3 C 97 % 1026,7 hPa 0,0 l/m 0 min 0 min 0 W/m 16,1 km/h (3 Bft) 100,00 %
29.01.2022 06:38 6,1 C 5,6 C 3,3 C 97 % 1026,7 hPa 0,0 l/m 0 min 0 min 0 W/m 19,3 km/h (3 Bft) 100,00 %
29.01.2022 06:40 6,1 C 5,6 C 3,3 C 97 % 1026,7 hPa 0,0 l/m 0 min 0 min 0 W/m 16,1 km/h (3 Bft) 100,00 %
29.01.2022 06:42 6,1 C 5,6 C 3,3 C 97 % 1026,6 hPa 0,0 l/m 0 min 0 min 0 W/m 16,1 km/h (3 Bft) 100,00 %
29.01.2022 06:44 6,2 C 5,6 C 3,3 C 97 % 1026,6 hPa 0,0 l/m 0 min 0 min 0 W/m 16,1 km/h (3 Bft) 100,00 %
29.01.2022 06:46 6,2 C 5,6 C 3,3 C 97 % 1026,5 hPa 0,0 l/m 0 min 0 min 0 W/m 22,5 km/h (4 Bft) 100,00 %
29.01.2022 06:48 6,2 C 5,6 C 3,3 C 97 % 1026,6 hPa 0,0 l/m 0 min 0 min 0 W/m 16,1 km/h (3 Bft) 100,00 %
29.01.2022 06:50 6,2 C 5,6 C 3,3 C 97 % 1026,6 hPa 0,0 l/m 0 min 0 min 0 W/m 9,7 km/h (2 Bft) 100,00 %
29.01.2022 06:52 6,2 C 5,6 C 3,3 C 98 % 1026,5 hPa 0,0 l/m 0 min 0 min 0 W/m 16,1 km/h (3 Bft) 100,00 %
29.01.2022 06:54 6,2 C 5,6 C 3,3 C 98 % 1026,5 hPa 0,0 l/m 0 min 0 min 0 W/m 9,7 km/h (2 Bft) 100,00 %
29.01.2022 06:56 6,2 C 5,6 C 3,3 C 98 % 1026,5 hPa 0,0 l/m 0 min 0 min 0 W/m 22,5 km/h (4 Bft) 100,00 %
29.01.2022 06:58 6,2 C 5,6 C 3,3 C 98 % 1026,5 hPa 0,0 l/m 0 min 0 min 0 W/m 16,1 km/h (3 Bft) 97,87 %
29.01.2022 07:00 6,2 C 5,6 C 3,3 C 98 % 1026,4 hPa 0,0 l/m 0 min 0 min 0 W/m 9,7 km/h (2 Bft) 100,00 %
29.01.2022 07:02 6,3 C 5,6 C 3,3 C 98 % 1026,4 hPa 0,0 l/m 0 min 0 min 0 W/m 19,3 km/h (3 Bft) 100,00 %
29.01.2022 07:04 6,3 C 5,6 C 3,3 C 98 % 1026,5 hPa 0,0 l/m 0 min 0 min 0 W/m 16,1 km/h (3 Bft) 100,00 %
29.01.2022 07:06 6,3 C 5,6 C 3,3 C 98 % 1026,4 hPa 0,0 l/m 0 min 0 min 0 W/m 19,3 km/h (3 Bft) 97,96 %
29.01.2022 07:08 6,3 C 5,6 C 3,3 C 97 % 1026,5 hPa 0,0 l/m 0 min 0 min 0 W/m 16,1 km/h (3 Bft) 97,87 %
29.01.2022 07:10 6,3 C 5,6 C 3,3 C 97 % 1026,4 hPa 0,0 l/m 0 min 0 min 0 W/m 19,3 km/h (3 Bft) 100,00 %
29.01.2022 07:12 6,3 C 5,6 C 3,3 C 97 % 1026,4 hPa 0,0 l/m 0 min 0 min 0 W/m 25,7 km/h (4 Bft) 96,55 %
29.01.2022 07:14 6,3 C 5,6 C 3,3 C 97 % 1026,4 hPa 0,0 l/m 0 min 0 min 0 W/m 38,6 km/h (5 Bft) 97,87 %
29.01.2022 07:16 6,3 C 5,6 C 3,3 C 98 % 1026,4 hPa 0,0 l/m 0 min 0 min 0 W/m 22,5 km/h (4 Bft) 97,14 %
29.01.2022 07:18 6,3 C 5,6 C 3,3 C 98 % 1026,4 hPa 0,0 l/m 0 min 0 min 0 W/m 16,1 km/h (3 Bft) 98,28 %
29.01.2022 07:20 6,3 C 5,6 C 3,3 C 98 % 1026,3 hPa 0,0 l/m 0 min 0 min 0 W/m 19,3 km/h (3 Bft) 97,83 %
29.01.2022 07:22 6,4 C 5,6 C 3,3 C 98 % 1026,3 hPa 0,0 l/m 0 min 0 min 0 W/m 16,1 km/h (3 Bft) 95,74 %
29.01.2022 07:24 6,4 C 5,6 C 3,3 C 98 % 1026,3 hPa 0,0 l/m 0 min 0 min 0 W/m 12,9 km/h (3 Bft) 97,87 %
29.01.2022 07:26 6,4 C 5,6 C 3,3 C 98 % 1026,2 hPa 0,0 l/m 0 min 0 min 0 W/m 16,1 km/h (3 Bft) 97,87 %
29.01.2022 07:28 6,4 C 5,6 C 3,3 C 98 % 1026,2 hPa 0,0 l/m 0 min 0 min 0 W/m 12,9 km/h (3 Bft) 97,87 %
29.01.2022 07:30 6,4 C 5,6 C 3,3 C 98 % 1026,2 hPa 0,0 l/m 0 min 0 min 0 W/m 19,3 km/h (3 Bft) 97,83 %
29.01.2022 07:32 6,4 C 5,6 C 3,3 C 98 % 1026,2 hPa 0,0 l/m 0 min 0 min 0 W/m 16,1 km/h (3 Bft) 97,87 %
29.01.2022 07:34 6,4 C 6,1 C 3,9 C 98 % 1026,1 hPa 0,0 l/m 0 min 0 min 0 W/m 38,6 km/h (5 Bft) 97,87 %
29.01.2022 07:36 6,5 C 6,1 C 3,9 C 98 % 1026,1 hPa 0,0 l/m 0 min 0 min 0 W/m 16,1 km/h (3 Bft) 97,87 %
29.01.2022 07:38 6,5 C 6,1 C 3,9 C 98 % 1026,1 hPa 0,0 l/m 0 min 0 min 0 W/m 12,9 km/h (3 Bft) 97,87 %
29.01.2022 07:40 6,5 C 6,1 C 3,9 C 98 % 1026,1 hPa 0,0 l/m 0 min 0 min 0 W/m 22,5 km/h (4 Bft) 97,87 %
29.01.2022 07:42 6,5 C 6,1 C 3,9 C 98 % 1026,1 hPa 0,0 l/m 0 min 0 min 0 W/m 25,7 km/h (4 Bft) 97,87 %
29.01.2022 07:44 6,6 C 6,1 C 3,9 C 98 % 1026,1 hPa 0,0 l/m 0 min 0 min 0 W/m 19,3 km/h (3 Bft) 100,00 %
29.01.2022 07:46 6,6 C 6,1 C 3,9 C 98 % 1026,1 hPa 0,0 l/m 0 min 0 min 0 W/m 19,3 km/h (3 Bft) 100,00 %
29.01.2022 07:48 6,6 C 6,1 C 3,9 C 98 % 1026,0 hPa 0,0 l/m 0 min 0 min 0 W/m 22,5 km/h (4 Bft) 100,00 %
29.01.2022 07:50 6,6 C 6,1 C 3,9 C 98 % 1026,0 hPa 0,0 l/m 0 min 0 min 0 W/m 16,1 km/h (3 Bft) 100,00 %
29.01.2022 07:52 6,6 C 6,1 C 3,9 C 98 % 1026,0 hPa 0,0 l/m 0 min 0 min 0 W/m 16,1 km/h (3 Bft) 97,87 %
29.01.2022 07:54 6,6 C 6,1 C 3,9 C 98 % 1026,0 hPa 0,0 l/m 0 min 0 min 0 W/m 12,9 km/h (3 Bft) 97,83 %
29.01.2022 07:56 6,7 C 6,1 C 3,9 C 98 % 1026,0 hPa 0,0 l/m 0 min 0 min 0 W/m 22,5 km/h (4 Bft) 97,87 %
29.01.2022 07:58 6,7 C 6,1 C 3,9 C 98 % 1026,0 hPa 0,0 l/m 0 min 0 min 0 W/m 19,3 km/h (3 Bft) 97,87 %
29.01.2022 08:00 6,7 C 6,1 C 3,9 C 98 % 1026,0 hPa 0,0 l/m 0 min 0 min 0 W/m 22,5 km/h (4 Bft) 97,87 %
29.01.2022 08:02 6,7 C 6,1 C 3,9 C 98 % 1025,9 hPa 0,0 l/m 0 min 0 min 0 W/m 16,1 km/h (3 Bft) 97,87 %
29.01.2022 08:04 6,7 C 6,1 C 3,9 C 98 % 1026,0 hPa 0,0 l/m 0 min 0 min 0 W/m 19,3 km/h (3 Bft) 95,74 %
29.01.2022 08:06 6,7 C 6,1 C 3,9 C 98 % 1026,0 hPa 0,0 l/m 0 min 0 min 0 W/m 19,3 km/h (3 Bft) 97,83 %
29.01.2022 08:08 6,8 C 6,1 C 3,9 C 98 % 1026,0 hPa 0,0 l/m 0 min 0 min 0 W/m 16,1 km/h (3 Bft) 95,74 %
29.01.2022 08:10 6,8 C 6,1 C 3,9 C 98 % 1025,9 hPa 0,0 l/m 0 min 0 min 0 W/m 16,1 km/h (3 Bft) 97,87 %
29.01.2022 08:12 6,8 C 6,1 C 3,9 C 98 % 1025,9 hPa 0,0 l/m 0 min 0 min 0 W/m 19,3 km/h (3 Bft) 95,74 %
29.01.2022 08:14 6,8 C 6,1 C 3,9 C 98 % 1025,8 hPa 0,0 l/m 0 min 0 min 0 W/m 22,5 km/h (4 Bft) 97,87 %
29.01.2022 08:16 6,8 C 6,1 C 3,9 C 98 % 1025,9 hPa 0,0 l/m 0 min 0 min 0 W/m 16,1 km/h (3 Bft) 97,83 %
29.01.2022 08:18 6,8 C 6,1 C 3,9 C 98 % 1025,9 hPa 0,0 l/m 0 min 0 min 0 W/m 29,0 km/h (5 Bft) 97,87 %
29.01.2022 08:20 6,9 C 6,1 C 3,9 C 98 % 1025,8 hPa 0,0 l/m 0 min 0 min 0 W/m 16,1 km/h (3 Bft) 97,87 %
29.01.2022 08:22 6,9 C 6,1 C 4,4 C 98 % 1025,8 hPa 0,0 l/m 0 min 0 min 0 W/m 25,7 km/h (4 Bft) 95,74 %
29.01.2022 08:24 6,9 C 6,1 C 4,4 C 98 % 1025,9 hPa 0,0 l/m 0 min 0 min 0 W/m 19,3 km/h (3 Bft) 95,74 %
29.01.2022 08:26 6,9 C 6,7 C 4,4 C 98 % 1025,9 hPa 0,0 l/m 0 min 0 min 0 W/m 19,3 km/h (3 Bft) 97,87 %
29.01.2022 08:28 7,0 C 6,7 C 4,4 C 98 % 1025,8 hPa 0,0 l/m 0 min 0 min 0 W/m 19,3 km/h (3 Bft) 100,00 %
29.01.2022 08:30 7,0 C 6,7 C 4,4 C 98 % 1025,8 hPa 0,0 l/m 0 min 0 min 0 W/m 25,7 km/h (4 Bft) 94,83 %
29.01.2022 08:32 7,0 C 6,7 C 4,4 C 98 % 1025,8 hPa 0,0 l/m 0 min 0 min 0 W/m 12,9 km/h (3 Bft) 94,29 %
29.01.2022 08:34 7,0 C 6,7 C 4,4 C 98 % 1025,8 hPa 0,0 l/m 0 min 0 min 0 W/m 29,0 km/h (5 Bft) 93,62 %
29.01.2022 08:36 7,1 C 6,7 C 4,4 C 98 % 1025,7 hPa 0,0 l/m 0 min 0 min 0 W/m 22,5 km/h (4 Bft) 93,22 %
29.01.2022 08:38 7,1 C 6,7 C 4,4 C 98 % 1025,7 hPa 0,0 l/m 0 min 0 min 4 W/m 22,5 km/h (4 Bft) 95,74 %
29.01.2022 08:40 7,1 C 6,7 C 4,4 C 98 % 1025,8 hPa 0,0 l/m 0 min 0 min 3 W/m 29,0 km/h (5 Bft) 95,65 %
29.01.2022 08:42 7,1 C 6,7 C 4,4 C 98 % 1025,8 hPa 0,0 l/m 0 min 0 min 0 W/m 25,7 km/h (4 Bft) 97,87 %
29.01.2022 08:44 7,1 C 6,7 C 4,4 C 98 % 1025,8 hPa 0,0 l/m 0 min 0 min 2 W/m 25,7 km/h (4 Bft) 97,87 %
29.01.2022 08:46 7,1 C 6,7 C 4,4 C 98 % 1025,8 hPa 0,0 l/m 0 min 0 min 5 W/m 22,5 km/h (4 Bft) 93,62 %
29.01.2022 08:48 7,1 C 6,7 C 4,4 C 98 % 1025,7 hPa 0,0 l/m 0 min 0 min 4 W/m 12,9 km/h (3 Bft) 97,87 %
29.01.2022 08:50 7,1 C 6,7 C 4,4 C 98 % 1025,7 hPa 0,0 l/m 0 min 0 min 0 W/m 12,9 km/h (3 Bft) 95,74 %
29.01.2022 08:52 7,1 C 6,7 C 4,4 C 98 % 1025,7 hPa 0,0 l/m 0 min 0 min 5 W/m 12,9 km/h (3 Bft) 95,65 %
29.01.2022 08:54 7,2 C 6,7 C 4,4 C 98 % 1025,6 hPa 0,0 l/m 0 min 0 min 5 W/m 19,3 km/h (3 Bft) 97,87 %
29.01.2022 08:56 7,2 C 6,7 C 4,4 C 98 % 1025,6 hPa 0,0 l/m 0 min 0 min 6 W/m 19,3 km/h (3 Bft) 95,74 %
29.01.2022 08:58 7,2 C 6,7 C 4,4 C 98 % 1025,5 hPa 0,0 l/m 0 min 0 min 7 W/m 19,3 km/h (3 Bft) 95,74 %
29.01.2022 09:00 7,2 C 6,7 C 4,4 C 98 % 1025,6 hPa 0,0 l/m 0 min 0 min 7 W/m 16,1 km/h (3 Bft) 97,87 %
29.01.2022 09:02 7,2 C 6,7 C 4,4 C 98 % 1025,6 hPa 0,0 l/m 0 min 0 min 7 W/m 16,1 km/h (3 Bft) 93,62 %
29.01.2022 09:04 7,2 C 6,7 C 4,4 C 98 % 1025,7 hPa 0,0 l/m 0 min 0 min 7 W/m 16,1 km/h (3 Bft) 97,83 %
29.01.2022 09:06 7,3 C 6,7 C 4,4 C 98 % 1025,6 hPa 0,0 l/m 0 min 0 min 8 W/m 12,9 km/h (3 Bft) 97,87 %
29.01.2022 09:08 7,2 C 6,7 C 4,4 C 98 % 1025,6 hPa 0,0 l/m 0 min 0 min 11 W/m 12,9 km/h (3 Bft) 95,74 %
29.01.2022 09:10 7,3 C 6,7 C 4,4 C 98 % 1025,5 hPa 0,0 l/m 0 min 0 min 10 W/m 22,5 km/h (4 Bft) 93,62 %
29.01.2022 09:12 7,3 C 6,7 C 4,4 C 98 % 1025,6 hPa 0,0 l/m 0 min 0 min 10 W/m 22,5 km/h (4 Bft) 95,74 %
29.01.2022 09:14 7,3 C 6,7 C 4,4 C 98 % 1025,5 hPa 0,0 l/m 0 min 0 min 11 W/m 19,3 km/h (3 Bft) 97,87 %
29.01.2022 09:16 7,3 C 6,7 C 4,4 C 98 % 1025,6 hPa 0,0 l/m 0 min 0 min 9 W/m 12,9 km/h (3 Bft) 100,00 %
29.01.2022 09:18 7,3 C 6,7 C 4,4 C 97 % 1025,5 hPa 0,0 l/m 0 min 0 min 12 W/m 16,1 km/h (3 Bft) 97,87 %
29.01.2022 09:20 7,3 C 6,7 C 4,4 C 97 % 1025,6 hPa 0,0 l/m 0 min 0 min 12 W/m 16,1 km/h (3 Bft) 95,74 %
29.01.2022 09:22 7,3 C 6,7 C 5,0 C 97 % 1025,5 hPa 0,0 l/m 0 min 0 min 15 W/m 19,3 km/h (3 Bft) 93,62 %
29.01.2022 09:24 7,3 C 6,7 C 5,0 C 97 % 1025,5 hPa 0,0 l/m 0 min 0 min 12 W/m 12,9 km/h (3 Bft) 97,87 %
29.01.2022 09:26 7,4 C 6,7 C 5,0 C 97 % 1025,5 hPa 0,0 l/m 0 min 0 min 14 W/m 12,9 km/h (3 Bft) 97,87 %
29.01.2022 09:28 7,4 C 6,7 C 5,0 C 97 % 1025,4 hPa 0,0 l/m 0 min 0 min 12 W/m 29,0 km/h (5 Bft) 97,87 %
29.01.2022 09:30 7,4 C 6,7 C 5,0 C 97 % 1025,4 hPa 0,0 l/m 0 min 0 min 19 W/m 19,3 km/h (3 Bft) 97,83 %
29.01.2022 09:32 7,4 C 6,7 C 5,0 C 97 % 1025,3 hPa 0,0 l/m 0 min 0 min 18 W/m 16,1 km/h (3 Bft) 97,87 %
29.01.2022 09:34 7,4 C 6,7 C 5,0 C 97 % 1025,3 hPa 0,0 l/m 0 min 0 min 16 W/m 12,9 km/h (3 Bft) 97,87 %
29.01.2022 09:36 7,4 C 7,2 C 5,0 C 97 % 1025,3 hPa 0,0 l/m 0 min 0 min 13 W/m 19,3 km/h (3 Bft) 97,87 %
29.01.2022 09:38 7,5 C 7,2 C 5,0 C 97 % 1025,4 hPa 0,0 l/m 0 min 0 min 14 W/m 22,5 km/h (4 Bft) 97,87 %
29.01.2022 09:40 7,5 C 7,2 C 5,0 C 97 % 1025,4 hPa 0,0 l/m 0 min 0 min 18 W/m 16,1 km/h (3 Bft) 97,83 %
29.01.2022 09:42 7,5 C 7,2 C 5,0 C 97 % 1025,3 hPa 0,0 l/m 0 min 0 min 20 W/m 16,1 km/h (3 Bft) 97,22 %
29.01.2022 09:44 7,5 C 7,2 C 5,0 C 97 % 1025,3 hPa 0,0 l/m 0 min 0 min 18 W/m 12,9 km/h (3 Bft) 100,00 %
29.01.2022 09:46 7,6 C 7,2 C 5,0 C 97 % 1025,2 hPa 0,0 l/m 0 min 0 min 21 W/m 22,5 km/h (4 Bft) 100,00 %
29.01.2022 09:48 7,6 C 7,2 C 5,0 C 97 % 1025,3 hPa 0,0 l/m 0 min 0 min 21 W/m 12,9 km/h (3 Bft) 97,87 %
29.01.2022 09:50 7,6 C 7,2 C 5,0 C 97 % 1025,3 hPa 0,0 l/m 0 min 0 min 26 W/m 35,4 km/h (5 Bft) 100,00 %
29.01.2022 09:52 7,6 C 7,2 C 5,0 C 97 % 1025,3 hPa 0,0 l/m 0 min 0 min 26 W/m 22,5 km/h (4 Bft) 100,00 %
29.01.2022 09:54 7,6 C 7,2 C 5,0 C 97 % 1025,3 hPa 0,0 l/m 0 min 0 min 29 W/m 25,7 km/h (4 Bft) 97,87 %
29.01.2022 09:56 7,6 C 7,2 C 5,0 C 97 % 1025,4 hPa 0,0 l/m 0 min 0 min 29 W/m 16,1 km/h (3 Bft) 100,00 %
29.01.2022 09:58 7,6 C 7,2 C 5,0 C 97 % 1025,3 hPa 0,0 l/m 0 min 0 min 26 W/m 16,1 km/h (3 Bft) 100,00 %
29.01.2022 10:00 7,6 C 7,2 C 5,0 C 97 % 1025,2 hPa 0,0 l/m 0 min 0 min 21 W/m 12,9 km/h (3 Bft) 100,00 %
29.01.2022 10:02 7,6 C 7,2 C 5,0 C 97 % 1025,2 hPa 0,0 l/m 0 min 0 min 24 W/m 22,5 km/h (4 Bft) 100,00 %
29.01.2022 10:04 7,7 C 7,2 C 5,0 C 97 % 1025,2 hPa 0,0 l/m 0 min 0 min 26 W/m 25,7 km/h (4 Bft) 100,00 %
29.01.2022 10:06 7,7 C 7,2 C 5,0 C 97 % 1025,2 hPa 0,0 l/m 0 min 0 min 34 W/m 19,3 km/h (3 Bft) 100,00 %
29.01.2022 10:08 7,7 C 7,2 C 5,0 C 97 % 1025,1 hPa 0,0 l/m 0 min 0 min 45 W/m 19,3 km/h (3 Bft) 100,00 %
29.01.2022 10:10 7,7 C 7,2 C 5,0 C 97 % 1025,1 hPa 0,0 l/m 0 min 0 min 34 W/m 16,1 km/h (3 Bft) 100,00 %
29.01.2022 10:12 7,7 C 7,2 C 5,0 C 97 % 1025,1 hPa 0,0 l/m 0 min 0 min 35 W/m 19,3 km/h (3 Bft) 100,00 %
29.01.2022 10:14 7,8 C 7,2 C 5,0 C 97 % 1025,1 hPa 0,0 l/m 0 min 0 min 41 W/m 22,5 km/h (4 Bft) 100,00 %
29.01.2022 10:16 7,8 C 7,2 C 5,0 C 97 % 1025,0 hPa 0,0 l/m 0 min 0 min 44 W/m 19,3 km/h (3 Bft) 100,00 %
29.01.2022 10:18 7,8 C 7,2 C 5,0 C 97 % 1025,0 hPa 0,0 l/m 0 min 0 min 60 W/m 16,1 km/h (3 Bft) 100,00 %
29.01.2022 10:20 7,8 C 7,2 C 5,0 C 97 % 1025,0 hPa 0,0 l/m 0 min 0 min 65 W/m 12,9 km/h (3 Bft) 100,00 %
29.01.2022 10:22 7,8 C 7,8 C 5,6 C 97 % 1024,9 hPa 0,0 l/m 0 min 0 min 71 W/m 16,1 km/h (3 Bft) 100,00 %
29.01.2022 10:24 7,8 C 7,8 C 5,6 C 97 % 1024,9 hPa 0,0 l/m 0 min 0 min 82 W/m 16,1 km/h (3 Bft) 100,00 %
29.01.2022 10:26 7,9 C 7,8 C 5,6 C 97 % 1024,8 hPa 0,0 l/m 0 min 0 min 55 W/m 19,3 km/h (3 Bft) 97,87 %
29.01.2022 10:28 7,9 C 7,8 C 5,6 C 97 % 1024,8 hPa 0,0 l/m 0 min 0 min 54 W/m 32,2 km/h (5 Bft) 100,00 %
29.01.2022 10:30 7,9 C 7,8 C 5,6 C 97 % 1024,8 hPa 0,0 l/m 0 min 0 min 48 W/m 12,9 km/h (3 Bft) 100,00 %
29.01.2022 10:32 7,9 C 7,8 C 5,6 C 97 % 1024,8 hPa 0,0 l/m 0 min 0 min 38 W/m 38,6 km/h (5 Bft) 97,87 %
29.01.2022 10:34 8,0 C 7,8 C 5,6 C 97 % 1024,8 hPa 0,0 l/m 0 min 0 min 35 W/m 16,1 km/h (3 Bft) 97,87 %
29.01.2022 10:36 8,0 C 7,8 C 5,6 C 97 % 1024,7 hPa 0,0 l/m 0 min 0 min 31 W/m 12,9 km/h (3 Bft) 100,00 %
29.01.2022 10:38 8,0 C 7,8 C 5,6 C 97 % 1024,7 hPa 0,0 l/m 0 min 0 min 30 W/m 25,7 km/h (4 Bft) 100,00 %
29.01.2022 10:40 8,0 C 7,8 C 5,6 C 97 % 1024,7 hPa 0,0 l/m 0 min 0 min 30 W/m 19,3 km/h (3 Bft) 100,00 %
29.01.2022 10:42 8,0 C 7,8 C 5,6 C 97 % 1024,7 hPa 0,0 l/m 0 min 0 min 31 W/m 19,3 km/h (3 Bft) 97,87 %
29.01.2022 10:44 8,1 C 7,8 C 5,6 C 97 % 1024,7 hPa 0,0 l/m 0 min 0 min 32 W/m 16,1 km/h (3 Bft) 95,74 %
29.01.2022 10:46 8,1 C 7,8 C 5,6 C 97 % 1024,7 hPa 0,0 l/m 0 min 0 min 37 W/m 16,1 km/h (3 Bft) 97,87 %
29.01.2022 10:48 8,1 C 7,8 C 5,6 C 97 % 1024,6 hPa 0,0 l/m 0 min 0 min 36 W/m 22,5 km/h (4 Bft) 93,48 %
29.01.2022 10:50 8,1 C 7,8 C 5,6 C 96 % 1024,7 hPa 0,0 l/m 0 min 0 min 33 W/m 16,1 km/h (3 Bft) 97,87 %
29.01.2022 10:52 8,1 C 7,8 C 5,6 C 96 % 1024,7 hPa 0,0 l/m 0 min 0 min 34 W/m 16,1 km/h (3 Bft) 97,87 %
29.01.2022 10:54 8,1 C 7,8 C 5,6 C 96 % 1024,7 hPa 0,0 l/m 0 min 0 min 42 W/m 12,9 km/h (3 Bft) 97,87 %
29.01.2022 10:56 8,1 C 7,8 C 5,6 C 96 % 1024,8 hPa 0,0 l/m 0 min 0 min 53 W/m 16,1 km/h (3 Bft) 97,87 %
29.01.2022 10:58 8,2 C 7,8 C 5,6 C 96 % 1024,8 hPa 0,0 l/m 0 min 0 min 49 W/m 19,3 km/h (3 Bft) 95,74 %
29.01.2022 11:00 8,2 C 7,8 C 5,6 C 96 % 1024,8 hPa 0,0 l/m 0 min 0 min 61 W/m 12,9 km/h (3 Bft) 95,65 %
29.01.2022 11:02 8,2 C 7,8 C 5,6 C 96 % 1024,8 hPa 0,0 l/m 0 min 0 min 80 W/m 16,1 km/h (3 Bft) 95,74 %
29.01.2022 11:04 8,3 C 7,8 C 6,1 C 96 % 1024,9 hPa 0,0 l/m 0 min 0 min 85 W/m 16,1 km/h (3 Bft) 97,87 %
29.01.2022 11:06 8,3 C 7,8 C 6,1 C 96 % 1024,9 hPa 0,0 l/m 0 min 0 min 51 W/m 19,3 km/h (3 Bft) 95,74 %
29.01.2022 11:08 8,3 C 7,8 C 6,1 C 96 % 1024,9 hPa 0,0 l/m 0 min 0 min 61 W/m 19,3 km/h (3 Bft) 95,74 %
29.01.2022 11:10 8,4 C 7,8 C 6,1 C 96 % 1024,8 hPa 0,0 l/m 0 min 0 min 73 W/m 25,7 km/h (4 Bft) 95,74 %
29.01.2022 11:12 8,4 C 7,8 C 6,1 C 96 % 1024,8 hPa 0,0 l/m 0 min 0 min 52 W/m 16,1 km/h (3 Bft) 95,65 %
29.01.2022 11:14 8,4 C 7,8 C 6,1 C 96 % 1024,9 hPa 0,0 l/m 0 min 0 min 46 W/m 25,7 km/h (4 Bft) 93,62 %
29.01.2022 11:16 8,4 C 7,8 C 6,1 C 96 % 1024,9 hPa 0,0 l/m 0 min 0 min 51 W/m 19,3 km/h (3 Bft) 93,62 %
29.01.2022 11:18 8,5 C 7,8 C 6,1 C 96 % 1024,9 hPa 0,0 l/m 0 min 0 min 40 W/m 19,3 km/h (3 Bft) 93,62 %
29.01.2022 11:20 8,5 C 7,8 C 6,1 C 96 % 1024,8 hPa 0,0 l/m 0 min 0 min 40 W/m 22,5 km/h (4 Bft) 93,62 %
29.01.2022 11:22 8,5 C 7,8 C 6,1 C 96 % 1024,9 hPa 0,0 l/m 0 min 0 min 37 W/m 29,0 km/h (5 Bft) 91,49 %
29.01.2022 11:24 8,6 C 7,8 C 6,1 C 96 % 1024,7 hPa 0,0 l/m 0 min 0 min 39 W/m 25,7 km/h (4 Bft) 91,30 %
29.01.2022 11:26 8,6 C 8,3 C 6,1 C 96 % 1024,7 hPa 0,0 l/m 0 min 0 min 58 W/m 32,2 km/h (5 Bft) 93,62 %
29.01.2022 11:28 8,6 C 8,3 C 6,1 C 96 % 1024,6 hPa 0,0 l/m 0 min 0 min 66 W/m 16,1 km/h (3 Bft) 95,74 %
29.01.2022 11:30 8,6 C 8,3 C 6,1 C 96 % 1024,6 hPa 0,0 l/m 0 min 0 min 67 W/m 19,3 km/h (3 Bft) 95,74 %
29.01.2022 11:32 8,6 C 8,3 C 6,1 C 96 % 1024,6 hPa 0,0 l/m 0 min 0 min 70 W/m 19,3 km/h (3 Bft) 93,62 %
29.01.2022 11:34 8,6 C 8,3 C 6,1 C 96 % 1024,6 hPa 0,0 l/m 0 min 0 min 63 W/m 22,5 km/h (4 Bft) 95,65 %
29.01.2022 11:36 8,6 C 8,3 C 6,1 C 96 % 1024,5 hPa 0,0 l/m 0 min 0 min 79 W/m 19,3 km/h (3 Bft) 95,74 %
29.01.2022 11:38 8,6 C 7,8 C 6,1 C 96 % 1024,5 hPa 0,0 l/m 0 min 0 min 56 W/m 19,3 km/h (3 Bft) 93,62 %
29.01.2022 11:40 8,6 C 7,8 C 6,1 C 96 % 1024,5 hPa 0,0 l/m 0 min 0 min 40 W/m 19,3 km/h (3 Bft) 91,49 %
29.01.2022 11:42 8,6 C 7,8 C 5,6 C 96 % 1024,4 hPa 0,0 l/m 0 min 0 min 44 W/m 22,5 km/h (4 Bft) 95,74 %
29.01.2022 11:44 8,6 C 7,8 C 5,6 C 96 % 1024,4 hPa 0,0 l/m 0 min 0 min 40 W/m 19,3 km/h (3 Bft) 93,62 %
29.01.2022 11:46 8,6 C 7,8 C 5,6 C 96 % 1024,4 hPa 0,0 l/m 0 min 0 min 38 W/m 25,7 km/h (4 Bft) 95,65 %
29.01.2022 11:48 8,6 C 7,8 C 5,6 C 96 % 1024,4 hPa 0,0 l/m 0 min 0 min 44 W/m 12,9 km/h (3 Bft) 97,87 %
29.01.2022 11:50 8,6 C 7,8 C 5,6 C 96 % 1024,5 hPa 0,0 l/m 0 min 0 min 60 W/m 19,3 km/h (3 Bft) 97,87 %
29.01.2022 11:52 8,6 C 7,8 C 5,6 C 96 % 1024,5 hPa 0,0 l/m 0 min 2 min 55 W/m 25,7 km/h (4 Bft) 97,87 %
29.01.2022 11:54 8,6 C 7,8 C 5,6 C 96 % 1024,4 hPa 0,0 l/m 0 min 2 min 55 W/m 16,1 km/h (3 Bft) 95,74 %
29.01.2022 11:56 8,6 C 7,8 C 5,6 C 96 % 1024,3 hPa 0,0 l/m 0 min 0 min 41 W/m 16,1 km/h (3 Bft) 95,74 %
29.01.2022 11:58 8,5 C 7,8 C 5,6 C 96 % 1024,2 hPa 0,0 l/m 0 min 2 min 46 W/m 25,7 km/h (4 Bft) 97,83 %
29.01.2022 12:00 8,5 C 7,8 C 5,6 C 96 % 1024,3 hPa 0,0 l/m 0 min 2 min 62 W/m 19,3 km/h (3 Bft) 97,87 %
29.01.2022 12:02 8,5 C 7,8 C 5,6 C 96 % 1024,2 hPa 0,0 l/m 0 min 0 min 70 W/m 16,1 km/h (3 Bft) 97,87 %
29.01.2022 12:04 8,5 C 7,8 C 5,6 C 97 % 1024,2 hPa 0,0 l/m 0 min 0 min 67 W/m 25,7 km/h (4 Bft) 100,00 %
29.01.2022 12:08 8,6 C 7,8 C 5,6 C 97 % 1024,2 hPa 0,0 l/m 0 min 0 min 70 W/m 22,5 km/h (4 Bft) 98,94 %
29.01.2022 12:10 8,6 C 7,8 C 5,6 C 97 % 1024,0 hPa 0,0 l/m 0 min 2 min 61 W/m 22,5 km/h (4 Bft) 100,00 %
29.01.2022 12:12 8,6 C 7,8 C 5,6 C 97 % 1024,1 hPa 0,0 l/m 0 min 0 min 63 W/m 16,1 km/h (3 Bft) 97,87 %
29.01.2022 12:14 8,6 C 7,8 C 5,6 C 97 % 1024,0 hPa 0,0 l/m 0 min 0 min 57 W/m 22,5 km/h (4 Bft) 100,00 %
29.01.2022 12:16 8,6 C 7,8 C 5,6 C 97 % 1024,0 hPa 0,0 l/m 0 min 0 min 61 W/m 19,3 km/h (3 Bft) 97,87 %
29.01.2022 12:18 8,6 C 7,8 C 5,6 C 97 % 1023,8 hPa 0,0 l/m 0 min 0 min 62 W/m 22,5 km/h (4 Bft) 100,00 %
29.01.2022 12:20 8,6 C 7,8 C 5,6 C 97 % 1023,8 hPa 0,0 l/m 0 min 0 min 75 W/m 29,0 km/h (5 Bft) 100,00 %
29.01.2022 12:22 8,6 C 7,8 C 5,6 C 97 % 1023,7 hPa 0,0 l/m 0 min 0 min 70 W/m 19,3 km/h (3 Bft) 100,00 %
29.01.2022 12:24 8,6 C 7,8 C 5,6 C 97 % 1023,8 hPa 0,0 l/m 0 min 0 min 78 W/m 19,3 km/h (3 Bft) 100,00 %
29.01.2022 12:26 8,6 C 7,8 C 6,1 C 97 % 1023,7 hPa 0,0 l/m 0 min 0 min 80 W/m 16,1 km/h (3 Bft) 97,87 %
29.01.2022 12:28 8,6 C 8,3 C 6,1 C 97 % 1023,7 hPa 0,0 l/m 0 min 0 min 78 W/m 19,3 km/h (3 Bft) 100,00 %
29.01.2022 12:30 8,6 C 8,3 C 6,1 C 97 % 1023,7 hPa 0,0 l/m 0 min 0 min 81 W/m 29,0 km/h (5 Bft) 100,00 %
29.01.2022 12:32 8,6 C 8,3 C 6,1 C 97 % 1023,7 hPa 0,0 l/m 0 min 0 min 75 W/m 22,5 km/h (4 Bft) 100,00 %
29.01.2022 12:34 8,6 C 8,3 C 6,1 C 97 % 1023,7 hPa 0,0 l/m 0 min 0 min 73 W/m 19,3 km/h (3 Bft) 100,00 %
29.01.2022 12:36 8,7 C 8,3 C 6,1 C 97 % 1023,7 hPa 0,0 l/m 0 min 0 min 84 W/m 16,1 km/h (3 Bft) 97,87 %
29.01.2022 12:38 8,7 C 8,3 C 6,1 C 97 % 1023,7 hPa 0,0 l/m 0 min 0 min 98 W/m 19,3 km/h (3 Bft) 100,00 %
29.01.2022 12:40 8,7 C 8,3 C 6,1 C 97 % 1023,6 hPa 0,0 l/m 0 min 0 min 92 W/m 29,0 km/h (5 Bft) 100,00 %
29.01.2022 12:42 8,7 C 8,3 C 6,1 C 97 % 1023,7 hPa 0,0 l/m 0 min 0 min 75 W/m 51,5 km/h (7 Bft) 100,00 %
29.01.2022 12:44 8,8 C 8,3 C 6,1 C 97 % 1023,6 hPa 0,0 l/m 0 min 0 min 114 W/m 19,3 km/h (3 Bft) 100,00 %
29.01.2022 12:46 8,8 C 8,9 C 6,1 C 97 % 1023,6 hPa 0,0 l/m 0 min 0 min 132 W/m 16,1 km/h (3 Bft) 100,00 %
29.01.2022 12:48 8,8 C 8,9 C 6,1 C 97 % 1023,4 hPa 0,0 l/m 0 min 0 min 130 W/m 19,3 km/h (3 Bft) 100,00 %
29.01.2022 12:50 8,9 C 8,9 C 6,7 C 98 % 1023,4 hPa 0,0 l/m 0 min 0 min 116 W/m 22,5 km/h (4 Bft) 97,87 %
29.01.2022 12:52 8,9 C 8,9 C 6,7 C 98 % 1023,4 hPa 0,0 l/m 0 min 0 min 94 W/m 16,1 km/h (3 Bft) 100,00 %
29.01.2022 12:54 8,9 C 8,9 C 6,7 C 98 % 1023,5 hPa 0,0 l/m 0 min 0 min 83 W/m 25,7 km/h (4 Bft) 97,87 %
29.01.2022 12:56 8,9 C 8,9 C 6,7 C 97 % 1023,4 hPa 0,0 l/m 0 min 0 min 98 W/m 16,1 km/h (3 Bft) 100,00 %
29.01.2022 12:58 9,0 C 8,9 C 6,7 C 97 % 1023,3 hPa 0,0 l/m 0 min 0 min 100 W/m 35,4 km/h (5 Bft) 100,00 %
29.01.2022 13:00 9,0 C 8,9 C 6,7 C 97 % 1023,3 hPa 0,0 l/m 0 min 0 min 72 W/m 16,1 km/h (3 Bft) 100,00 %
29.01.2022 13:02 9,0 C 8,9 C 6,7 C 97 % 1023,3 hPa 0,0 l/m 0 min 0 min 62 W/m 22,5 km/h (4 Bft) 100,00 %
29.01.2022 13:04 9,1 C 8,9 C 6,7 C 97 % 1023,3 hPa 0,0 l/m 0 min 0 min 67 W/m 16,1 km/h (3 Bft) 95,74 %
29.01.2022 13:06 9,1 C 8,9 C 6,7 C 97 % 1023,2 hPa 0,0 l/m 0 min 0 min 84 W/m 22,5 km/h (4 Bft) 100,00 %
29.01.2022 13:08 9,1 C 8,9 C 6,7 C 97 % 1023,1 hPa 0,0 l/m 0 min 0 min 94 W/m 29,0 km/h (5 Bft) 97,87 %
29.01.2022 13:10 9,1 C 8,9 C 6,7 C 97 % 1023,1 hPa 0,0 l/m 0 min 0 min 83 W/m 19,3 km/h (3 Bft) 100,00 %
29.01.2022 13:12 9,1 C 8,9 C 6,7 C 97 % 1023,1 hPa 0,0 l/m 0 min 0 min 73 W/m 29,0 km/h (5 Bft) 97,87 %
29.01.2022 13:14 9,1 C 8,9 C 6,7 C 96 % 1023,1 hPa 0,0 l/m 0 min 0 min 54 W/m 19,3 km/h (3 Bft) 97,87 %
29.01.2022 13:16 9,2 C 8,9 C 6,7 C 96 % 1023,0 hPa 0,0 l/m 0 min 0 min 56 W/m 29,0 km/h (5 Bft) 93,62 %
29.01.2022 13:18 9,2 C 8,9 C 6,7 C 96 % 1023,0 hPa 0,0 l/m 0 min 0 min 54 W/m 19,3 km/h (3 Bft) 97,87 %
29.01.2022 13:20 9,2 C 8,9 C 6,7 C 96 % 1023,0 hPa 0,0 l/m 0 min 0 min 64 W/m 19,3 km/h (3 Bft) 97,87 %
29.01.2022 13:22 9,2 C 8,9 C 6,7 C 96 % 1022,9 hPa 0,0 l/m 0 min 0 min 86 W/m 22,5 km/h (4 Bft) 95,65 %
29.01.2022 13:24 9,2 C 8,9 C 6,7 C 96 % 1022,9 hPa 0,0 l/m 0 min 0 min 86 W/m 25,7 km/h (4 Bft) 97,87 %
29.01.2022 13:26 9,3 C 8,9 C 6,7 C 96 % 1022,8 hPa 0,0 l/m 0 min 0 min 78 W/m 19,3 km/h (3 Bft) 95,74 %
29.01.2022 13:28 9,3 C 8,9 C 7,2 C 95 % 1022,8 hPa 0,0 l/m 0 min 0 min 91 W/m 22,5 km/h (4 Bft) 93,62 %
29.01.2022 13:30 9,3 C 9,4 C 7,2 C 95 % 1022,8 hPa 0,0 l/m 0 min 0 min 109 W/m 19,3 km/h (3 Bft) 97,87 %
29.01.2022 13:32 9,4 C 9,4 C 7,2 C 95 % 1022,7 hPa 0,0 l/m 0 min 0 min 123 W/m 25,7 km/h (4 Bft) 95,74 %
29.01.2022 13:34 9,4 C 9,4 C 7,2 C 95 % 1022,6 hPa 0,0 l/m 0 min 0 min 98 W/m 12,9 km/h (3 Bft) 93,48 %
29.01.2022 13:36 9,4 C 9,4 C 7,2 C 95 % 1022,6 hPa 0,0 l/m 0 min 0 min 80 W/m 19,3 km/h (3 Bft) 93,62 %
29.01.2022 13:38 9,4 C 9,4 C 7,2 C 95 % 1022,6 hPa 0,0 l/m 0 min 0 min 96 W/m 29,0 km/h (5 Bft) 95,74 %
29.01.2022 13:40 9,5 C 9,4 C 7,2 C 95 % 1022,5 hPa 0,0 l/m 0 min 0 min 77 W/m 19,3 km/h (3 Bft) 95,74 %
29.01.2022 13:42 9,5 C 9,4 C 7,2 C 94 % 1022,5 hPa 0,0 l/m 0 min 0 min 69 W/m 19,3 km/h (3 Bft) 93,62 %
29.01.2022 13:44 9,6 C 9,4 C 7,2 C 94 % 1022,5 hPa 0,0 l/m 0 min 0 min 64 W/m 16,1 km/h (3 Bft) 95,65 %
29.01.2022 13:46 9,6 C 9,4 C 7,2 C 94 % 1022,6 hPa 0,0 l/m 0 min 0 min 84 W/m 22,5 km/h (4 Bft) 95,74 %
29.01.2022 13:48 9,6 C 9,4 C 7,2 C 94 % 1022,6 hPa 0,0 l/m 0 min 0 min 115 W/m 41,8 km/h (6 Bft) 95,74 %
29.01.2022 13:50 9,6 C 9,4 C 7,2 C 94 % 1022,5 hPa 0,0 l/m 0 min 0 min 122 W/m 22,5 km/h (4 Bft) 97,87 %
29.01.2022 13:52 9,7 C 9,4 C 7,2 C 94 % 1022,5 hPa 0,0 l/m 0 min 0 min 94 W/m 19,3 km/h (3 Bft) 97,87 %
29.01.2022 13:54 9,7 C 9,4 C 7,2 C 93 % 1022,4 hPa 0,0 l/m 0 min 0 min 91 W/m 22,5 km/h (4 Bft) 95,74 %
29.01.2022 13:56 9,7 C 9,4 C 7,2 C 93 % 1022,5 hPa 0,0 l/m 0 min 0 min 109 W/m 16,1 km/h (3 Bft) 95,65 %
29.01.2022 13:58 9,8 C 9,4 C 7,2 C 93 % 1022,6 hPa 0,0 l/m 2 min 0 min 186 W/m 19,3 km/h (3 Bft) 97,87 %
29.01.2022 14:00 9,8 C 9,4 C 7,2 C 93 % 1022,6 hPa 0,0 l/m 0 min 0 min 175 W/m 29,0 km/h (5 Bft) 97,87 %
29.01.2022 14:02 9,8 C 9,4 C 7,2 C 93 % 1022,5 hPa 0,0 l/m 0 min 0 min 153 W/m 29,0 km/h (5 Bft) 97,87 %
29.01.2022 14:04 9,9 C 9,4 C 7,2 C 93 % 1022,5 hPa 0,0 l/m 0 min 0 min 114 W/m 25,7 km/h (4 Bft) 95,74 %
29.01.2022 14:06 9,9 C 9,4 C 7,2 C 93 % 1022,5 hPa 0,0 l/m 0 min 0 min 72 W/m 16,1 km/h (3 Bft) 97,87 %
29.01.2022 14:08 9,9 C 9,4 C 7,2 C 92 % 1022,4 hPa 0,0 l/m 0 min 0 min 79 W/m 35,4 km/h (5 Bft) 95,65 %
29.01.2022 14:10 9,9 C 9,4 C 7,2 C 92 % 1022,5 hPa 0,0 l/m 0 min 0 min 88 W/m 35,4 km/h (5 Bft) 93,62 %
29.01.2022 14:12 9,9 C 9,4 C 7,2 C 92 % 1022,5 hPa 0,0 l/m 0 min 0 min 76 W/m 19,3 km/h (3 Bft) 97,87 %
29.01.2022 14:14 9,9 C 9,4 C 7,2 C 92 % 1022,4 hPa 0,0 l/m 0 min 0 min 67 W/m 29,0 km/h (5 Bft) 97,87 %
29.01.2022 14:16 9,9 C 9,4 C 7,2 C 92 % 1022,3 hPa 0,0 l/m 0 min 0 min 57 W/m 19,3 km/h (3 Bft) 97,87 %
29.01.2022 14:18 9,9 C 9,4 C 7,2 C 92 % 1022,3 hPa 0,0 l/m 0 min 0 min 61 W/m 16,1 km/h (3 Bft) 97,87 %
29.01.2022 14:20 10,0 C 9,4 C 7,2 C 92 % 1022,3 hPa 0,0 l/m 0 min 0 min 84 W/m 32,2 km/h (5 Bft) 97,83 %
29.01.2022 14:22 10,0 C 9,4 C 7,2 C 92 % 1022,2 hPa 0,0 l/m 0 min 0 min 83 W/m 22,5 km/h (4 Bft) 95,74 %
29.01.2022 14:24 10,0 C 9,4 C 7,2 C 92 % 1022,1 hPa 0,0 l/m 0 min 0 min 91 W/m 12,9 km/h (3 Bft) 97,87 %
29.01.2022 14:26 10,0 C 9,4 C 7,2 C 92 % 1022,1 hPa 0,0 l/m 0 min 0 min 107 W/m 19,3 km/h (3 Bft) 97,87 %
29.01.2022 14:28 10,1 C 10,0 C 7,2 C 92 % 1022,0 hPa 0,0 l/m 0 min 0 min 102 W/m 22,5 km/h (4 Bft) 93,62 %
29.01.2022 14:30 10,1 C 10,0 C 7,2 C 92 % 1021,9 hPa 0,0 l/m 0 min 0 min 126 W/m 22,5 km/h (4 Bft) 97,87 %
29.01.2022 14:32 10,1 C 10,0 C 7,8 C 91 % 1021,8 hPa 0,0 l/m 0 min 0 min 134 W/m 25,7 km/h (4 Bft) 97,83 %
29.01.2022 14:34 10,1 C 10,0 C 7,8 C 91 % 1021,8 hPa 0,0 l/m 0 min 0 min 96 W/m 19,3 km/h (3 Bft) 97,87 %
29.01.2022 14:36 10,1 C 10,0 C 7,2 C 91 % 1021,8 hPa 0,0 l/m 0 min 0 min 59 W/m 16,1 km/h (3 Bft) 93,62 %
29.01.2022 14:38 10,2 C 10,0 C 7,2 C 91 % 1021,8 hPa 0,0 l/m 0 min 0 min 46 W/m 19,3 km/h (3 Bft) 97,87 %
29.01.2022 14:40 10,1 C 10,0 C 7,2 C 91 % 1021,8 hPa 0,0 l/m 0 min 0 min 44 W/m 25,7 km/h (4 Bft) 97,87 %
29.01.2022 14:42 10,1 C 9,4 C 7,2 C 91 % 1021,8 hPa 0,0 l/m 0 min 0 min 45 W/m 22,5 km/h (4 Bft) 93,62 %
29.01.2022 14:44 10,1 C 9,4 C 7,2 C 91 % 1021,9 hPa 0,0 l/m 0 min 0 min 51 W/m 35,4 km/h (5 Bft) 97,83 %
29.01.2022 14:46 10,1 C 9,4 C 7,2 C 91 % 1021,9 hPa 0,0 l/m 0 min 0 min 61 W/m 16,1 km/h (3 Bft) 97,87 %
29.01.2022 14:48 10,2 C 9,4 C 7,2 C 91 % 1021,9 hPa 0,0 l/m 0 min 0 min 64 W/m 19,3 km/h (3 Bft) 97,87 %
29.01.2022 14:50 10,2 C 9,4 C 7,2 C 91 % 1021,9 hPa 0,0 l/m 0 min 0 min 50 W/m 22,5 km/h (4 Bft) 97,87 %
29.01.2022 14:52 10,2 C 9,4 C 7,2 C 91 % 1021,9 hPa 0,0 l/m 0 min 0 min 40 W/m 25,7 km/h (4 Bft) 97,87 %
29.01.2022 14:54 10,2 C 9,4 C 7,2 C 91 % 1021,9 hPa 0,0 l/m 0 min 0 min 38 W/m 22,5 km/h (4 Bft) 97,87 %
29.01.2022 14:56 10,1 C 9,4 C 7,2 C 91 % 1021,9 hPa 0,0 l/m 0 min 0 min 30 W/m 25,7 km/h (4 Bft) 100,00 %
29.01.2022 14:58 10,1 C 9,4 C 7,2 C 91 % 1021,8 hPa 0,0 l/m 0 min 0 min 30 W/m 25,7 km/h (4 Bft) 100,00 %
29.01.2022 15:00 10,1 C 9,4 C 7,2 C 91 % 1021,9 hPa 0,0 l/m 0 min 0 min 22 W/m 19,3 km/h (3 Bft) 100,00 %
29.01.2022 15:02 10,1 C 9,4 C 7,2 C 91 % 1021,9 hPa 0,0 l/m 0 min 0 min 17 W/m 22,5 km/h (4 Bft) 100,00 %
29.01.2022 15:04 10,1 C 9,4 C 7,2 C 91 % 1021,9 hPa 0,0 l/m 0 min 0 min 15 W/m 19,3 km/h (3 Bft) 100,00 %
29.01.2022 15:06 10,1 C 9,4 C 7,2 C 91 % 1021,8 hPa 0,0 l/m 0 min 0 min 14 W/m 29,0 km/h (5 Bft) 97,92 %
29.01.2022 15:08 10,1 C 9,4 C 7,2 C 91 % 1021,8 hPa 0,0 l/m 0 min 0 min 13 W/m 16,1 km/h (3 Bft) 100,00 %
29.01.2022 15:10 10,1 C 9,4 C 7,2 C 91 % 1021,6 hPa 0,0 l/m 0 min 0 min 14 W/m 29,0 km/h (5 Bft) 100,00 %
29.01.2022 15:12 10,1 C 9,4 C 7,2 C 91 % 1021,7 hPa 0,0 l/m 0 min 0 min 13 W/m 25,7 km/h (4 Bft) 100,00 %
29.01.2022 15:14 10,1 C 9,4 C 7,2 C 91 % 1021,9 hPa 0,0 l/m 0 min 0 min 11 W/m 25,7 km/h (4 Bft) 100,00 %
29.01.2022 15:16 10,1 C 9,4 C 7,2 C 91 % 1021,8 hPa 0,0 l/m 0 min 0 min 11 W/m 19,3 km/h (3 Bft) 97,87 %
29.01.2022 15:18 10,1 C 9,4 C 7,2 C 91 % 1021,8 hPa 0,0 l/m 0 min 0 min 12 W/m 38,6 km/h (5 Bft) 97,87 %
29.01.2022 15:20 10,1 C 9,4 C 7,2 C 91 % 1021,9 hPa 0,0 l/m 0 min 0 min 11 W/m 16,1 km/h (3 Bft) 97,83 %
29.01.2022 15:22 10,1 C 9,4 C 7,2 C 91 % 1021,9 hPa 0,0 l/m 0 min 0 min 11 W/m 19,3 km/h (3 Bft) 97,87 %
29.01.2022 15:24 10,1 C 9,4 C 7,2 C 91 % 1021,8 hPa 0,0 l/m 0 min 0 min 17 W/m 19,3 km/h (3 Bft) 97,87 %
29.01.2022 15:26 10,1 C 9,4 C 7,2 C 91 % 1021,8 hPa 0,0 l/m 0 min 0 min 23 W/m 25,7 km/h (4 Bft) 95,74 %
29.01.2022 15:28 10,1 C 9,4 C 7,2 C 91 % 1021,8 hPa 0,0 l/m 0 min 0 min 25 W/m 25,7 km/h (4 Bft) 97,87 %
29.01.2022 15:30 10,1 C 9,4 C 7,2 C 91 % 1021,7 hPa 0,0 l/m 0 min 0 min 25 W/m 19,3 km/h (3 Bft) 95,74 %
29.01.2022 15:32 10,1 C 9,4 C 7,2 C 91 % 1021,8 hPa 0,0 l/m 0 min 0 min 23 W/m 29,0 km/h (5 Bft) 97,83 %
29.01.2022 15:34 10,1 C 9,4 C 7,2 C 91 % 1021,8 hPa 0,0 l/m 0 min 0 min 20 W/m 19,3 km/h (3 Bft) 97,87 %
29.01.2022 15:36 10,1 C 9,4 C 7,2 C 91 % 1021,8 hPa 0,0 l/m 0 min 0 min 18 W/m 22,5 km/h (4 Bft) 97,87 %
29.01.2022 15:38 10,1 C 9,4 C 7,2 C 91 % 1022,0 hPa 0,0 l/m 0 min 0 min 16 W/m 22,5 km/h (4 Bft) 97,87 %
29.01.2022 15:40 10,1 C 9,4 C 7,2 C 91 % 1021,9 hPa 0,0 l/m 0 min 0 min 13 W/m 22,5 km/h (4 Bft) 97,87 %
29.01.2022 15:42 10,1 C 9,4 C 7,2 C 91 % 1021,8 hPa 0,0 l/m 0 min 0 min 13 W/m 16,1 km/h (3 Bft) 97,83 %
29.01.2022 15:44 10,1 C 9,4 C 7,2 C 91 % 1021,9 hPa 0,0 l/m 0 min 0 min 14 W/m 16,1 km/h (3 Bft) 97,87 %
29.01.2022 15:46 10,1 C 9,4 C 7,2 C 91 % 1022,0 hPa 0,0 l/m 0 min 0 min 13 W/m 19,3 km/h (3 Bft) 97,87 %
29.01.2022 15:48 10,2 C 9,4 C 7,2 C 91 % 1021,9 hPa 0,0 l/m 0 min 0 min 13 W/m 25,7 km/h (4 Bft) 93,62 %
29.01.2022 15:50 10,2 C 9,4 C 7,2 C 91 % 1021,9 hPa 0,0 l/m 0 min 0 min 10 W/m 25,7 km/h (4 Bft) 97,87 %
29.01.2022 15:52 10,2 C 9,4 C 7,2 C 91 % 1022,0 hPa 0,0 l/m 0 min 0 min 11 W/m 25,7 km/h (4 Bft) 97,87 %
29.01.2022 15:54 10,2 C 9,4 C 7,2 C 91 % 1022,0 hPa 0,0 l/m 0 min 0 min 11 W/m 16,1 km/h (3 Bft) 100,00 %
29.01.2022 15:56 10,2 C 9,4 C 7,2 C 91 % 1022,0 hPa 0,0 l/m 0 min 0 min 10 W/m 22,5 km/h (4 Bft) 100,00 %
29.01.2022 15:58 10,2 C 9,4 C 7,2 C 91 % 1022,0 hPa 0,0 l/m 0 min 0 min 8 W/m 22,5 km/h (4 Bft) 100,00 %
29.01.2022 16:00 10,2 C 9,4 C 7,2 C 91 % 1021,9 hPa 0,0 l/m 0 min 0 min 8 W/m 25,7 km/h (4 Bft) 100,00 %
29.01.2022 16:02 10,2 C 9,4 C 7,2 C 91 % 1021,9 hPa 0,0 l/m 0 min 0 min 9 W/m 22,5 km/h (4 Bft) 98,18 %
29.01.2022 16:04 10,2 C 9,4 C 7,2 C 91 % 1021,8 hPa 0,0 l/m 0 min 0 min 9 W/m 22,5 km/h (4 Bft) 100,00 %
29.01.2022 16:06 10,2 C 9,4 C 7,2 C 91 % 1021,9 hPa 0,0 l/m 0 min 0 min 9 W/m 19,3 km/h (3 Bft) 97,87 %
29.01.2022 16:08 10,2 C 9,4 C 7,2 C 91 % 1021,9 hPa 0,0 l/m 0 min 0 min 9 W/m 19,3 km/h (3 Bft) 100,00 %
29.01.2022 16:10 10,2 C 9,4 C 7,2 C 91 % 1022,1 hPa 0,0 l/m 0 min 0 min 7 W/m 22,5 km/h (4 Bft) 97,83 %
29.01.2022 16:12 10,2 C 9,4 C 7,2 C 91 % 1022,1 hPa 0,0 l/m 0 min 0 min 5 W/m 16,1 km/h (3 Bft) 97,87 %
29.01.2022 16:14 10,2 C 9,4 C 7,2 C 91 % 1022,1 hPa 0,0 l/m 0 min 0 min 7 W/m 16,1 km/h (3 Bft) 95,74 %
29.01.2022 16:16 10,2 C 9,4 C 6,7 C 91 % 1021,9 hPa 0,0 l/m 0 min 0 min 7 W/m 22,5 km/h (4 Bft) 93,62 %
29.01.2022 16:18 10,2 C 9,4 C 6,7 C 91 % 1021,8 hPa 0,0 l/m 0 min 0 min 7 W/m 22,5 km/h (4 Bft) 95,74 %
29.01.2022 16:20 10,2 C 9,4 C 6,7 C 92 % 1021,7 hPa 0,0 l/m 0 min 0 min 6 W/m 16,1 km/h (3 Bft) 97,87 %
29.01.2022 16:22 10,2 C 9,4 C 6,7 C 92 % 1021,7 hPa 0,0 l/m 0 min 0 min 5 W/m 22,5 km/h (4 Bft) 97,83 %
29.01.2022 16:24 10,1 C 9,4 C 6,7 C 92 % 1021,7 hPa 0,0 l/m 0 min 0 min 6 W/m 16,1 km/h (3 Bft) 97,87 %
29.01.2022 16:26 10,1 C 9,4 C 6,7 C 92 % 1021,8 hPa 0,0 l/m 0 min 0 min 10 W/m 22,5 km/h (4 Bft) 97,87 %
29.01.2022 16:28 10,1 C 9,4 C 6,7 C 92 % 1022,0 hPa 0,0 l/m 0 min 0 min 8 W/m 19,3 km/h (3 Bft) 97,87 %
29.01.2022 16:30 10,1 C 9,4 C 6,7 C 93 % 1022,1 hPa 0,0 l/m 0 min 0 min 4 W/m 32,2 km/h (5 Bft) 95,74 %
29.01.2022 16:32 10,1 C 9,4 C 6,7 C 93 % 1022,1 hPa 0,0 l/m 0 min 2 min 0 W/m 16,1 km/h (3 Bft) 97,87 %
29.01.2022 16:34 10,1 C 9,4 C 6,1 C 93 % 1022,0 hPa 0,0 l/m 0 min 2 min 0 W/m 32,2 km/h (5 Bft) 97,87 %
29.01.2022 16:36 10,0 C 9,4 C 6,1 C 93 % 1022,0 hPa 0,0 l/m 0 min 2 min 0 W/m 22,5 km/h (4 Bft) 97,83 %
29.01.2022 16:38 9,9 C 8,9 C 6,1 C 93 % 1022,0 hPa 0,0 l/m 0 min 2 min 0 W/m 32,2 km/h (5 Bft) 97,87 %
29.01.2022 16:40 9,9 C 8,9 C 6,1 C 94 % 1022,0 hPa 0,0 l/m 0 min 2 min 0 W/m 16,1 km/h (3 Bft) 95,74 %
29.01.2022 16:42 9,9 C 8,9 C 6,1 C 94 % 1022,0 hPa 0,0 l/m 0 min 2 min 0 W/m 22,5 km/h (4 Bft) 97,87 %
29.01.2022 16:44 9,9 C 8,9 C 6,1 C 94 % 1021,9 hPa 0,0 l/m 0 min 2 min 0 W/m 25,7 km/h (4 Bft) 97,87 %
29.01.2022 16:46 9,8 C 8,9 C 6,1 C 94 % 1021,9 hPa 0,0 l/m 0 min 2 min 0 W/m 22,5 km/h (4 Bft) 97,87 %
29.01.2022 16:48 9,8 C 8,9 C 6,1 C 94 % 1021,9 hPa 0,0 l/m 0 min 2 min 0 W/m 19,3 km/h (3 Bft) 95,65 %
29.01.2022 16:50 9,8 C 8,9 C 6,1 C 95 % 1022,0 hPa 0,0 l/m 0 min 0 min 0 W/m 25,7 km/h (4 Bft) 95,74 %
29.01.2022 16:52 9,8 C 8,9 C 6,1 C 95 % 1021,8 hPa 0,0 l/m 0 min 0 min 0 W/m 16,1 km/h (3 Bft) 97,87 %
29.01.2022 16:54 9,8 C 8,9 C 6,1 C 95 % 1021,8 hPa 0,0 l/m 0 min 0 min 0 W/m 25,7 km/h (4 Bft) 97,87 %
29.01.2022 16:56 9,8 C 8,9 C 6,1 C 95 % 1021,8 hPa 0,0 l/m 0 min 0 min 0 W/m 29,0 km/h (5 Bft) 93,62 %
29.01.2022 16:58 9,8 C 8,9 C 6,1 C 95 % 1021,8 hPa 0,0 l/m 0 min 0 min 0 W/m 12,9 km/h (3 Bft) 95,74 %
29.01.2022 17:00 9,7 C 8,9 C 6,1 C 95 % 1021,8 hPa 0,0 l/m 0 min 0 min 1 W/m 25,7 km/h (4 Bft) 97,87 %
29.01.2022 17:02 9,7 C 8,9 C 6,1 C 95 % 1021,8 hPa 0,0 l/m 0 min 0 min 5 W/m 22,5 km/h (4 Bft) 95,65 %
29.01.2022 17:04 9,7 C 8,9 C 6,1 C 95 % 1021,8 hPa 0,0 l/m 0 min 0 min 10 W/m 19,3 km/h (3 Bft) 97,87 %
29.01.2022 17:06 9,7 C 8,9 C 6,1 C 95 % 1021,8 hPa 0,0 l/m 0 min 0 min 10 W/m 16,1 km/h (3 Bft) 95,74 %
29.01.2022 17:08 9,7 C 8,9 C 6,1 C 95 % 1021,6 hPa 0,0 l/m 0 min 0 min 7 W/m 29,0 km/h (5 Bft) 95,74 %
29.01.2022 17:10 9,7 C 8,9 C 6,1 C 95 % 1021,7 hPa 0,0 l/m 0 min 0 min 7 W/m 12,9 km/h (3 Bft) 97,87 %
29.01.2022 17:12 9,6 C 8,9 C 6,1 C 95 % 1021,6 hPa 0,0 l/m 0 min 0 min 7 W/m 22,5 km/h (4 Bft) 95,65 %
29.01.2022 17:14 9,6 C 8,9 C 6,1 C 95 % 1021,7 hPa 0,0 l/m 0 min 0 min 5 W/m 22,5 km/h (4 Bft) 97,87 %
29.01.2022 17:16 9,6 C 8,9 C 6,1 C 96 % 1021,6 hPa 0,0 l/m 0 min 0 min 4 W/m 19,3 km/h (3 Bft) 97,87 %
29.01.2022 17:18 9,6 C 8,9 C 6,1 C 96 % 1021,7 hPa 0,0 l/m 0 min 0 min 0 W/m 16,1 km/h (3 Bft) 93,62 %
29.01.2022 17:20 9,6 C 8,9 C 6,1 C 96 % 1021,7 hPa 0,0 l/m 0 min 0 min 0 W/m 32,2 km/h (5 Bft) 91,49 %
29.01.2022 17:22 9,6 C 8,9 C 6,1 C 96 % 1021,6 hPa 0,0 l/m 0 min 0 min 0 W/m 29,0 km/h (5 Bft) 95,74 %
29.01.2022 17:24 9,6 C 8,9 C 6,1 C 96 % 1021,5 hPa 0,0 l/m 0 min 0 min 0 W/m 22,5 km/h (4 Bft) 95,65 %
29.01.2022 17:26 9,6 C 8,9 C 6,1 C 96 % 1021,7 hPa 0,0 l/m 0 min 0 min 0 W/m 25,7 km/h (4 Bft) 95,74 %
29.01.2022 17:28 9,6 C 8,9 C 6,1 C 96 % 1021,7 hPa 0,0 l/m 0 min 0 min 0 W/m 38,6 km/h (5 Bft) 95,74 %
29.01.2022 17:30 9,7 C 8,9 C 6,1 C 96 % 1021,7 hPa 0,0 l/m 0 min 0 min 0 W/m 19,3 km/h (3 Bft) 95,74 %
29.01.2022 17:32 9,7 C 8,9 C 6,1 C 96 % 1021,8 hPa 0,0 l/m 0 min 0 min 0 W/m 19,3 km/h (3 Bft) 91,49 %
29.01.2022 17:34 9,7 C 8,9 C 6,7 C 96 % 1021,8 hPa 0,0 l/m 0 min 0 min 0 W/m 16,1 km/h (3 Bft) 95,65 %
29.01.2022 17:36 9,7 C 8,9 C 6,1 C 96 % 1021,8 hPa 0,0 l/m 0 min 0 min 0 W/m 19,3 km/h (3 Bft) 95,74 %
29.01.2022 17:38 9,7 C 8,9 C 6,7 C 96 % 1021,9 hPa 0,0 l/m 0 min 0 min 0 W/m 19,3 km/h (3 Bft) 95,74 %
29.01.2022 17:40 9,7 C 8,9 C 6,7 C 96 % 1021,8 hPa 0,0 l/m 0 min 0 min 0 W/m 25,7 km/h (4 Bft) 97,87 %
29.01.2022 17:42 9,7 C 8,9 C 6,7 C 96 % 1021,8 hPa 0,0 l/m 0 min 0 min 0 W/m 29,0 km/h (5 Bft) 95,74 %
29.01.2022 17:44 9,7 C 8,9 C 6,7 C 96 % 1021,8 hPa 0,0 l/m 0 min 0 min 0 W/m 19,3 km/h (3 Bft) 97,87 %
29.01.2022 17:46 9,7 C 8,9 C 6,7 C 96 % 1021,8 hPa 0,0 l/m 0 min 0 min 0 W/m 25,7 km/h (4 Bft) 97,83 %
29.01.2022 17:48 9,8 C 8,9 C 6,7 C 96 % 1021,9 hPa 0,0 l/m 0 min 0 min 0 W/m 16,1 km/h (3 Bft) 97,87 %
29.01.2022 17:50 9,8 C 8,9 C 6,7 C 96 % 1021,9 hPa 0,0 l/m 0 min 0 min 0 W/m 22,5 km/h (4 Bft) 97,87 %
29.01.2022 17:52 9,8 C 9,4 C 6,7 C 95 % 1021,9 hPa 0,0 l/m 0 min 0 min 0 W/m 22,5 km/h (4 Bft) 97,87 %
29.01.2022 17:54 9,8 C 9,4 C 6,7 C 95 % 1021,9 hPa 0,0 l/m 0 min 0 min 0 W/m 22,5 km/h (4 Bft) 100,00 %
29.01.2022 17:56 9,8 C 9,4 C 6,7 C 95 % 1021,9 hPa 0,0 l/m 0 min 0 min 0 W/m 22,5 km/h (4 Bft) 98,39 %
29.01.2022 17:58 9,8 C 9,4 C 6,7 C 95 % 1021,9 hPa 0,0 l/m 0 min 0 min 0 W/m 16,1 km/h (3 Bft) 95,74 %
29.01.2022 18:00 9,8 C 9,4 C 6,7 C 95 % 1022,0 hPa 0,0 l/m 0 min 0 min 0 W/m 29,0 km/h (5 Bft) 97,83 %
29.01.2022 18:02 9,8 C 9,4 C 6,7 C 95 % 1021,9 hPa 0,0 l/m 0 min 0 min 0 W/m 22,5 km/h (4 Bft) 100,00 %
29.01.2022 18:04 9,8 C 9,4 C 6,7 C 95 % 1022,0 hPa 0,0 l/m 0 min 0 min 0 W/m 19,3 km/h (3 Bft) 100,00 %
29.01.2022 18:08 9,9 C 9,4 C 6,7 C 95 % 1022,0 hPa 0,0 l/m 0 min 0 min 0 W/m 16,1 km/h (3 Bft) 100,00 %
29.01.2022 18:10 9,9 C 9,4 C 6,7 C 95 % 1022,1 hPa 0,0 l/m 0 min 0 min 0 W/m 19,3 km/h (3 Bft) 100,00 %
29.01.2022 18:12 9,9 C 9,4 C 6,7 C 95 % 1022,3 hPa 0,0 l/m 0 min 0 min 0 W/m 19,3 km/h (3 Bft) 100,00 %
29.01.2022 18:14 9,9 C 9,4 C 7,2 C 95 % 1022,1 hPa 0,0 l/m 0 min 0 min 0 W/m 25,7 km/h (4 Bft) 100,00 %
29.01.2022 18:16 10,0 C 9,4 C 7,2 C 95 % 1022,1 hPa 0,0 l/m 0 min 0 min 0 W/m 25,7 km/h (4 Bft) 100,00 %
29.01.2022 18:18 10,0 C 9,4 C 7,2 C 95 % 1022,1 hPa 0,0 l/m 0 min 0 min 0 W/m 12,9 km/h (3 Bft) 100,00 %
29.01.2022 18:20 10,0 C 9,4 C 6,7 C 95 % 1022,1 hPa 0,0 l/m 0 min 0 min 0 W/m 12,9 km/h (3 Bft) 100,00 %
29.01.2022 18:22 9,9 C 9,4 C 6,7 C 94 % 1022,1 hPa 0,0 l/m 0 min 0 min 0 W/m 16,1 km/h (3 Bft) 100,00 %
29.01.2022 18:24 9,9 C 9,4 C 6,7 C 94 % 1022,2 hPa 0,0 l/m 0 min 0 min 0 W/m 19,3 km/h (3 Bft) 100,00 %
29.01.2022 18:26 10,0 C 9,4 C 7,2 C 94 % 1022,2 hPa 0,0 l/m 0 min 0 min 0 W/m 16,1 km/h (3 Bft) 97,87 %
29.01.2022 18:28 10,1 C 9,4 C 7,2 C 94 % 1022,1 hPa 0,0 l/m 0 min 0 min 0 W/m 22,5 km/h (4 Bft) 100,00 %
29.01.2022 18:30 10,1 C 9,4 C 7,2 C 95 % 1022,2 hPa 0,0 l/m 0 min 0 min 0 W/m 22,5 km/h (4 Bft) 100,00 %
29.01.2022 18:32 10,2 C 10,0 C 7,2 C 95 % 1022,2 hPa 0,0 l/m 0 min 0 min 0 W/m 22,5 km/h (4 Bft) 100,00 %
29.01.2022 18:34 10,2 C 9,4 C 7,2 C 94 % 1022,2 hPa 0,0 l/m 0 min 0 min 0 W/m 22,5 km/h (4 Bft) 100,00 %
29.01.2022 18:36 10,2 C 10,0 C 7,2 C 94 % 1022,2 hPa 0,0 l/m 0 min 0 min 0 W/m 16,1 km/h (3 Bft) 100,00 %
29.01.2022 18:38 10,3 C 10,0 C 7,2 C 94 % 1022,4 hPa 0,0 l/m 0 min 0 min 0 W/m 16,1 km/h (3 Bft) 100,00 %
29.01.2022 18:40 10,3 C 10,0 C 7,2 C 94 % 1022,3 hPa 0,0 l/m 0 min 0 min 0 W/m 16,1 km/h (3 Bft) 97,83 %
29.01.2022 18:42 10,3 C 9,4 C 7,2 C 94 % 1022,4 hPa 0,0 l/m 0 min 0 min 0 W/m 16,1 km/h (3 Bft) 97,87 %
29.01.2022 18:44 10,3 C 9,4 C 7,2 C 94 % 1022,3 hPa 0,0 l/m 0 min 0 min 0 W/m 12,9 km/h (3 Bft) 100,00 %
29.01.2022 18:46 10,3 C 10,0 C 7,2 C 94 % 1022,4 hPa 0,0 l/m 0 min 0 min 0 W/m 12,9 km/h (3 Bft) 100,00 %
29.01.2022 18:48 10,3 C 10,0 C 7,2 C 94 % 1022,4 hPa 0,0 l/m 0 min 0 min 0 W/m 19,3 km/h (3 Bft) 100,00 %
29.01.2022 18:50 10,3 C 9,4 C 7,2 C 94 % 1022,3 hPa 0,0 l/m 0 min 0 min 0 W/m 12,9 km/h (3 Bft) 100,00 %
29.01.2022 18:52 10,3 C 9,4 C 7,2 C 94 % 1022,4 hPa 0,0 l/m 0 min 0 min 0 W/m 16,1 km/h (3 Bft) 100,00 %
29.01.2022 18:54 10,3 C 9,4 C 7,2 C 94 % 1022,5 hPa 0,0 l/m 0 min 0 min 0 W/m 9,7 km/h (2 Bft) 95,74 %
29.01.2022 18:56 10,3 C 9,4 C 7,2 C 94 % 1022,5 hPa 0,0 l/m 0 min 0 min 0 W/m 16,1 km/h (3 Bft) 100,00 %
29.01.2022 18:58 10,3 C 9,4 C 7,2 C 94 % 1022,5 hPa 0,0 l/m 0 min 0 min 0 W/m 16,1 km/h (3 Bft) 97,87 %
29.01.2022 19:00 10,3 C 9,4 C 7,2 C 93 % 1022,4 hPa 0,0 l/m 0 min 0 min 0 W/m 12,9 km/h (3 Bft) 100,00 %
29.01.2022 19:02 10,2 C 9,4 C 7,2 C 93 % 1022,5 hPa 0,0 l/m 0 min 2 min 0 W/m 19,3 km/h (3 Bft) 97,87 %
29.01.2022 19:04 10,3 C 9,4 C 7,2 C 93 % 1022,4 hPa 0,0 l/m 0 min 2 min 0 W/m 12,9 km/h (3 Bft) 100,00 %
29.01.2022 19:06 10,2 C 9,4 C 7,2 C 93 % 1022,4 hPa 0,0 l/m 0 min 0 min 0 W/m 9,7 km/h (2 Bft) 97,87 %
29.01.2022 19:08 10,3 C 9,4 C 7,2 C 94 % 1022,4 hPa 0,0 l/m 0 min 0 min 0 W/m 19,3 km/h (3 Bft) 97,87 %
29.01.2022 19:10 10,3 C 9,4 C 7,2 C 94 % 1022,4 hPa 0,0 l/m 0 min 0 min 0 W/m 12,9 km/h (3 Bft) 93,62 %
29.01.2022 19:12 10,3 C 9,4 C 7,2 C 94 % 1022,4 hPa 0,0 l/m 0 min 2 min 0 W/m 19,3 km/h (3 Bft) 95,74 %
29.01.2022 19:14 10,3 C 9,4 C 7,2 C 94 % 1022,4 hPa 0,0 l/m 0 min 2 min 0 W/m 22,5 km/h (4 Bft) 95,74 %
29.01.2022 19:16 10,3 C 9,4 C 6,7 C 94 % 1022,4 hPa 0,0 l/m 0 min 0 min 0 W/m 12,9 km/h (3 Bft) 93,48 %
29.01.2022 19:18 10,3 C 9,4 C 7,2 C 94 % 1022,5 hPa 0,0 l/m 0 min 0 min 0 W/m 19,3 km/h (3 Bft) 95,74 %
29.01.2022 19:20 10,3 C 9,4 C 7,2 C 94 % 1022,5 hPa 0,0 l/m 0 min 0 min 0 W/m 22,5 km/h (4 Bft) 95,74 %
29.01.2022 19:22 10,3 C 9,4 C 7,2 C 93 % 1022,4 hPa 0,0 l/m 0 min 2 min 0 W/m 29,0 km/h (5 Bft) 95,74 %
29.01.2022 19:24 10,3 C 9,4 C 7,2 C 93 % 1022,6 hPa 0,0 l/m 0 min 0 min 0 W/m 19,3 km/h (3 Bft) 95,74 %
29.01.2022 19:26 10,3 C 9,4 C 7,2 C 93 % 1022,6 hPa 0,0 l/m 0 min 0 min 0 W/m 19,3 km/h (3 Bft) 93,62 %
29.01.2022 19:28 10,3 C 9,4 C 7,2 C 93 % 1022,5 hPa 0,0 l/m 0 min 0 min 0 W/m 19,3 km/h (3 Bft) 93,48 %
29.01.2022 19:30 10,3 C 9,4 C 7,2 C 93 % 1022,7 hPa 0,0 l/m 0 min 0 min 0 W/m 29,0 km/h (5 Bft) 93,62 %
29.01.2022 19:32 10,3 C 9,4 C 7,2 C 93 % 1022,7 hPa 0,0 l/m 0 min 2 min 0 W/m 19,3 km/h (3 Bft) 95,74 %
29.01.2022 19:34 10,3 C 10,0 C 7,2 C 93 % 1022,7 hPa 0,0 l/m 0 min 2 min 0 W/m 19,3 km/h (3 Bft) 93,62 %
29.01.2022 19:36 10,3 C 10,0 C 7,2 C 93 % 1022,7 hPa 0,0 l/m 0 min 2 min 0 W/m 16,1 km/h (3 Bft) 93,62 %
29.01.2022 19:38 10,3 C 9,4 C 7,2 C 93 % 1022,8 hPa 0,0 l/m 0 min 2 min 0 W/m 19,3 km/h (3 Bft) 93,62 %
29.01.2022 19:40 10,3 C 9,4 C 7,2 C 93 % 1022,8 hPa 0,0 l/m 0 min 2 min 0 W/m 19,3 km/h (3 Bft) 96,36 %
29.01.2022 19:42 10,3 C 9,4 C 7,2 C 93 % 1022,9 hPa 0,0 l/m 0 min 0 min 0 W/m 16,1 km/h (3 Bft) 93,62 %
29.01.2022 19:44 10,3 C 9,4 C 6,7 C 93 % 1023,0 hPa 0,0 l/m 0 min 0 min 0 W/m 12,9 km/h (3 Bft) 94,74 %
29.01.2022 19:46 10,3 C 9,4 C 6,7 C 93 % 1023,1 hPa 0,0 l/m 0 min 2 min 0 W/m 29,0 km/h (5 Bft) 93,62 %
29.01.2022 19:48 10,3 C 9,4 C 7,2 C 93 % 1023,2 hPa 0,0 l/m 0 min 2 min 0 W/m 22,5 km/h (4 Bft) 93,62 %
29.01.2022 19:50 10,3 C 9,4 C 6,7 C 93 % 1023,3 hPa 0,2 l/m 0 min 2 min 0 W/m 19,3 km/h (3 Bft) 95,74 %
29.01.2022 19:52 10,3 C 9,4 C 6,7 C 93 % 1023,4 hPa 0,0 l/m 0 min 2 min 0 W/m 35,4 km/h (5 Bft) 95,65 %
29.01.2022 19:54 10,3 C 9,4 C 6,7 C 93 % 1023,4 hPa 0,0 l/m 0 min 2 min 0 W/m 35,4 km/h (5 Bft) 95,74 %
29.01.2022 19:56 10,2 C 9,4 C 6,7 C 92 % 1023,4 hPa 0,0 l/m 0 min 2 min 0 W/m 45,1 km/h (6 Bft) 97,87 %
29.01.2022 19:58 10,2 C 9,4 C 6,7 C 91 % 1023,5 hPa 0,0 l/m 0 min 2 min 0 W/m 45,1 km/h (6 Bft) 97,87 %
29.01.2022 20:00 10,2 C 9,4 C 6,7 C 90 % 1023,5 hPa 0,0 l/m 0 min 0 min 0 W/m 35,4 km/h (5 Bft) 97,87 %
29.01.2022 20:02 10,2 C 9,4 C 6,7 C 89 % 1023,7 hPa 0,0 l/m 0 min 0 min 0 W/m 45,1 km/h (6 Bft) 95,65 %
29.01.2022 20:04 10,2 C 9,4 C 6,7 C 88 % 1023,6 hPa 0,0 l/m 0 min 0 min 0 W/m 57,9 km/h (7 Bft) 97,87 %
29.01.2022 20:06 10,2 C 9,4 C 7,2 C 87 % 1023,7 hPa 0,0 l/m 0 min 0 min 0 W/m 29,0 km/h (5 Bft) 97,87 %
29.01.2022 20:08 10,2 C 9,4 C 7,2 C 87 % 1023,6 hPa 0,0 l/m 0 min 0 min 0 W/m 35,4 km/h (5 Bft) 97,87 %
29.01.2022 20:10 10,3 C 9,4 C 7,2 C 86 % 1023,7 hPa 0,0 l/m 0 min 0 min 0 W/m 25,7 km/h (4 Bft) 97,87 %
29.01.2022 20:12 10,3 C 9,4 C 7,2 C 86 % 1023,7 hPa 0,0 l/m 0 min 0 min 0 W/m 29,0 km/h (5 Bft) 93,62 %
29.01.2022 20:14 10,3 C 9,4 C 7,2 C 86 % 1023,8 hPa 0,0 l/m 0 min 0 min 0 W/m 45,1 km/h (6 Bft) 95,65 %
29.01.2022 20:16 10,3 C 9,4 C 7,2 C 86 % 1024,0 hPa 0,0 l/m 0 min 0 min 0 W/m 35,4 km/h (5 Bft) 97,87 %
29.01.2022 20:18 10,3 C 9,4 C 7,2 C 85 % 1024,0 hPa 0,0 l/m 0 min 0 min 0 W/m 35,4 km/h (5 Bft) 100,00 %
29.01.2022 20:20 10,2 C 9,4 C 7,2 C 85 % 1024,0 hPa 0,0 l/m 0 min 0 min 0 W/m 35,4 km/h (5 Bft) 97,87 %
29.01.2022 20:22 10,2 C 9,4 C 6,7 C 84 % 1024,1 hPa 0,0 l/m 0 min 0 min 0 W/m 54,7 km/h (7 Bft) 97,87 %
29.01.2022 20:24 10,2 C 9,4 C 6,7 C 84 % 1024,1 hPa 0,0 l/m 0 min 0 min 0 W/m 25,7 km/h (4 Bft) 100,00 %
29.01.2022 20:26 10,1 C 9,4 C 6,7 C 83 % 1024,2 hPa 0,0 l/m 0 min 0 min 0 W/m 38,6 km/h (5 Bft) 100,00 %
29.01.2022 20:28 10,1 C 9,4 C 6,7 C 83 % 1024,1 hPa 0,0 l/m 0 min 0 min 0 W/m 57,9 km/h (7 Bft) 97,87 %
29.01.2022 20:30 10,1 C 9,4 C 6,7 C 83 % 1024,2 hPa 0,0 l/m 0 min 0 min 0 W/m 32,2 km/h (5 Bft) 100,00 %
29.01.2022 20:32 10,0 C 8,9 C 6,7 C 83 % 1024,3 hPa 0,0 l/m 0 min 0 min 0 W/m 32,2 km/h (5 Bft) 97,87 %
29.01.2022 20:34 9,9 C 8,9 C 6,7 C 83 % 1024,3 hPa 0,0 l/m 0 min 0 min 0 W/m 35,4 km/h (5 Bft) 100,00 %
29.01.2022 20:36 9,9 C 8,9 C 6,7 C 83 % 1024,3 hPa 0,0 l/m 0 min 0 min 0 W/m 32,2 km/h (5 Bft) 100,00 %
29.01.2022 20:38 9,9 C 8,9 C 6,1 C 83 % 1024,2 hPa 0,0 l/m 0 min 0 min 0 W/m 22,5 km/h (4 Bft) 100,00 %
29.01.2022 20:40 9,8 C 8,9 C 6,1 C 83 % 1024,3 hPa 0,0 l/m 0 min 0 min 0 W/m 25,7 km/h (4 Bft) 100,00 %
29.01.2022 20:42 9,8 C 8,9 C 6,1 C 83 % 1024,3 hPa 0,0 l/m 0 min 0 min 0 W/m 35,4 km/h (5 Bft) 100,00 %
29.01.2022 20:44 9,8 C 8,9 C 6,1 C 83 % 1024,4 hPa 0,0 l/m 0 min 0 min 0 W/m 19,3 km/h (3 Bft) 100,00 %
29.01.2022 20:46 9,7 C 8,9 C 6,1 C 83 % 1024,4 hPa 0,0 l/m 0 min 0 min 0 W/m 38,6 km/h (5 Bft) 100,00 %
29.01.2022 20:48 9,7 C 8,9 C 6,1 C 83 % 1024,3 hPa 0,0 l/m 0 min 0 min 0 W/m 29,0 km/h (5 Bft) 100,00 %
29.01.2022 20:50 9,7 C 8,9 C 6,1 C 83 % 1024,2 hPa 0,0 l/m 0 min 0 min 0 W/m 29,0 km/h (5 Bft) 100,00 %
29.01.2022 20:52 9,6 C 8,9 C 6,1 C 83 % 1024,3 hPa 0,0 l/m 0 min 0 min 0 W/m 22,5 km/h (4 Bft) 100,00 %
29.01.2022 20:54 9,6 C 8,3 C 5,6 C 83 % 1024,4 hPa 0,0 l/m 0 min 0 min 0 W/m 22,5 km/h (4 Bft) 100,00 %
29.01.2022 20:56 9,5 C 8,3 C 5,6 C 83 % 1024,4 hPa 0,0 l/m 0 min 0 min 0 W/m 25,7 km/h (4 Bft) 100,00 %
29.01.2022 20:58 9,5 C 8,3 C 5,6 C 83 % 1024,4 hPa 0,0 l/m 0 min 0 min 0 W/m 25,7 km/h (4 Bft) 100,00 %
29.01.2022 21:00 9,4 C 8,3 C 5,6 C 83 % 1024,4 hPa 0,0 l/m 0 min 0 min 0 W/m 16,1 km/h (3 Bft) 100,00 %
29.01.2022 21:02 9,4 C 8,3 C 5,6 C 83 % 1024,4 hPa 0,0 l/m 0 min 0 min 0 W/m 25,7 km/h (4 Bft) 100,00 %
29.01.2022 21:04 9,4 C 8,3 C 5,6 C 83 % 1024,3 hPa 0,0 l/m 0 min 0 min 0 W/m 35,4 km/h (5 Bft) 97,87 %
29.01.2022 21:06 9,3 C 8,3 C 5,6 C 83 % 1024,3 hPa 0,0 l/m 0 min 0 min 0 W/m 25,7 km/h (4 Bft) 100,00 %
29.01.2022 21:08 9,3 C 8,3 C 5,6 C 83 % 1024,6 hPa 0,0 l/m 0 min 0 min 0 W/m 38,6 km/h (5 Bft) 100,00 %
29.01.2022 21:10 9,3 C 8,3 C 5,6 C 83 % 1024,6 hPa 0,0 l/m 0 min 0 min 0 W/m 22,5 km/h (4 Bft) 100,00 %
29.01.2022 21:12 9,3 C 8,3 C 5,6 C 83 % 1024,6 hPa 0,0 l/m 0 min 0 min 0 W/m 22,5 km/h (4 Bft) 97,87 %
29.01.2022 21:14 9,2 C 8,3 C 5,6 C 83 % 1024,6 hPa 0,0 l/m 0 min 0 min 0 W/m 25,7 km/h (4 Bft) 97,83 %
29.01.2022 21:16 9,2 C 8,3 C 5,6 C 83 % 1024,6 hPa 0,0 l/m 0 min 0 min 0 W/m 29,0 km/h (5 Bft) 97,87 %
29.01.2022 21:18 9,2 C 8,3 C 5,6 C 83 % 1024,6 hPa 0,0 l/m 0 min 0 min 0 W/m 19,3 km/h (3 Bft) 97,87 %
29.01.2022 21:20 9,1 C 8,3 C 5,6 C 83 % 1024,6 hPa 0,0 l/m 0 min 0 min 0 W/m 19,3 km/h (3 Bft) 97,87 %
29.01.2022 21:22 9,1 C 8,3 C 5,6 C 83 % 1024,6 hPa 0,0 l/m 0 min 0 min 0 W/m 19,3 km/h (3 Bft) 97,87 %
29.01.2022 21:24 9,1 C 8,3 C 5,6 C 83 % 1024,6 hPa 0,0 l/m 0 min 0 min 0 W/m 25,7 km/h (4 Bft) 95,65 %
29.01.2022 21:26 9,1 C 8,3 C 5,0 C 83 % 1024,6 hPa 0,0 l/m 0 min 0 min 0 W/m 12,9 km/h (3 Bft) 97,87 %
29.01.2022 21:28 9,0 C 8,3 C 5,0 C 83 % 1024,7 hPa 0,0 l/m 0 min 0 min 0 W/m 16,1 km/h (3 Bft) 97,87 %
29.01.2022 21:30 8,9 C 7,8 C 5,0 C 83 % 1024,7 hPa 0,0 l/m 0 min 0 min 0 W/m 12,9 km/h (3 Bft) 97,87 %
29.01.2022 21:32 8,9 C 7,8 C 5,0 C 84 % 1024,7 hPa 0,0 l/m 0 min 0 min 0 W/m 19,3 km/h (3 Bft) 98,11 %
29.01.2022 21:34 8,8 C 7,8 C 5,0 C 84 % 1024,6 hPa 0,0 l/m 0 min 0 min 0 W/m 16,1 km/h (3 Bft) 97,87 %
29.01.2022 21:36 8,8 C 7,8 C 5,0 C 83 % 1024,7 hPa 0,0 l/m 0 min 0 min 0 W/m 16,1 km/h (3 Bft) 97,87 %
29.01.2022 21:38 8,8 C 7,8 C 5,0 C 84 % 1024,7 hPa 0,0 l/m 0 min 0 min 0 W/m 12,9 km/h (3 Bft) 97,87 %
29.01.2022 21:40 8,7 C 7,8 C 5,0 C 84 % 1024,7 hPa 0,0 l/m 0 min 0 min 0 W/m 16,1 km/h (3 Bft) 97,87 %
29.01.2022 21:42 8,7 C 7,8 C 5,0 C 84 % 1024,8 hPa 0,0 l/m 0 min 0 min 0 W/m 19,3 km/h (3 Bft) 97,87 %
29.01.2022 21:44 8,7 C 7,8 C 5,0 C 84 % 1024,8 hPa 0,0 l/m 0 min 0 min 0 W/m 19,3 km/h (3 Bft) 100,00 %
29.01.2022 21:46 8,7 C 7,8 C 5,0 C 84 % 1024,9 hPa 0,0 l/m 0 min 0 min 0 W/m 16,1 km/h (3 Bft) 100,00 %
29.01.2022 21:48 8,6 C 7,8 C 5,0 C 84 % 1024,8 hPa 0,0 l/m 0 min 0 min 0 W/m 16,1 km/h (3 Bft) 100,00 %
29.01.2022 21:50 8,6 C 7,8 C 5,0 C 84 % 1024,9 hPa 0,0 l/m 0 min 0 min 0 W/m 25,7 km/h (4 Bft) 100,00 %
29.01.2022 21:52 8,6 C 7,8 C 5,0 C 84 % 1024,9 hPa 0,0 l/m 0 min 0 min 0 W/m 22,5 km/h (4 Bft) 100,00 %
29.01.2022 21:54 8,6 C 7,8 C 5,0 C 84 % 1025,0 hPa 0,0 l/m 0 min 0 min 0 W/m 22,5 km/h (4 Bft) 100,00 %
29.01.2022 21:56 8,6 C 7,8 C 5,0 C 84 % 1024,9 hPa 0,0 l/m 0 min 0 min 0 W/m 29,0 km/h (5 Bft) 100,00 %
29.01.2022 21:58 8,5 C 7,8 C 5,0 C 84 % 1024,9 hPa 0,0 l/m 0 min 0 min 0 W/m 19,3 km/h (3 Bft) 100,00 %
29.01.2022 22:00 8,5 C 7,8 C 5,0 C 84 % 1024,9 hPa 0,0 l/m 0 min 0 min 0 W/m 16,1 km/h (3 Bft) 97,87 %
29.01.2022 22:02 8,5 C 7,8 C 5,0 C 84 % 1024,9 hPa 0,0 l/m 0 min 0 min 0 W/m 32,2 km/h (5 Bft) 95,74 %
29.01.2022 22:04 8,5 C 7,8 C 5,0 C 84 % 1025,0 hPa 0,0 l/m 0 min 0 min 0 W/m 25,7 km/h (4 Bft) 97,87 %
29.01.2022 22:06 8,6 C 7,8 C 5,0 C 84 % 1025,0 hPa 0,0 l/m 0 min 0 min 0 W/m 22,5 km/h (4 Bft) 97,87 %
29.01.2022 22:08 8,5 C 7,8 C 5,0 C 84 % 1025,0 hPa 0,0 l/m 0 min 0 min 0 W/m 32,2 km/h (5 Bft) 97,83 %
29.01.2022 22:10 8,6 C 7,8 C 5,0 C 84 % 1024,9 hPa 0,0 l/m 0 min 0 min 0 W/m 29,0 km/h (5 Bft) 97,87 %
29.01.2022 22:12 8,6 C 7,8 C 5,0 C 84 % 1025,0 hPa 0,0 l/m 0 min 0 min 0 W/m 25,7 km/h (4 Bft) 93,62 %
29.01.2022 22:14 8,5 C 7,8 C 5,0 C 84 % 1025,0 hPa 0,0 l/m 0 min 0 min 0 W/m 12,9 km/h (3 Bft) 95,74 %
29.01.2022 22:16 8,5 C 7,8 C 5,0 C 84 % 1025,1 hPa 0,0 l/m 0 min 0 min 0 W/m 16,1 km/h (3 Bft) 93,62 %
29.01.2022 22:18 8,4 C 7,8 C 5,0 C 84 % 1025,1 hPa 0,0 l/m 0 min 0 min 0 W/m 29,0 km/h (5 Bft) 93,48 %
29.01.2022 22:20 8,4 C 7,8 C 4,4 C 84 % 1025,2 hPa 0,0 l/m 0 min 0 min 0 W/m 29,0 km/h (5 Bft) 95,74 %
29.01.2022 22:22 8,4 C 7,8 C 4,4 C 84 % 1025,3 hPa 0,0 l/m 0 min 0 min 0 W/m 25,7 km/h (4 Bft) 95,74 %
29.01.2022 22:24 8,4 C 7,8 C 5,0 C 83 % 1025,2 hPa 0,0 l/m 0 min 0 min 0 W/m 25,7 km/h (4 Bft) 93,62 %
29.01.2022 22:26 8,4 C 7,8 C 5,0 C 83 % 1025,3 hPa 0,0 l/m 0 min 0 min 0 W/m 38,6 km/h (5 Bft) 95,74 %
29.01.2022 22:28 8,4 C 7,8 C 5,0 C 83 % 1025,4 hPa 0,0 l/m 0 min 0 min 0 W/m 25,7 km/h (4 Bft) 93,62 %
29.01.2022 22:30 8,4 C 7,8 C 5,0 C 83 % 1025,4 hPa 0,0 l/m 0 min 0 min 0 W/m 35,4 km/h (5 Bft) 95,74 %
29.01.2022 22:32 8,4 C 7,8 C 4,4 C 83 % 1025,4 hPa 0,0 l/m 0 min 0 min 0 W/m 29,0 km/h (5 Bft) 95,74 %
29.01.2022 22:34 8,4 C 7,8 C 4,4 C 83 % 1025,4 hPa 0,0 l/m 0 min 0 min 0 W/m 29,0 km/h (5 Bft) 95,74 %
29.01.2022 22:36 8,4 C 7,8 C 4,4 C 83 % 1025,4 hPa 0,0 l/m 0 min 0 min 0 W/m 29,0 km/h (5 Bft) 93,62 %
29.01.2022 22:38 8,4 C 7,8 C 4,4 C 83 % 1025,4 hPa 0,0 l/m 0 min 0 min 0 W/m 48,3 km/h (6 Bft) 95,74 %
29.01.2022 22:40 8,4 C 7,8 C 4,4 C 83 % 1025,4 hPa 0,0 l/m 0 min 0 min 0 W/m 19,3 km/h (3 Bft) 95,74 %
29.01.2022 22:42 8,3 C 7,2 C 4,4 C 83 % 1025,4 hPa 0,0 l/m 0 min 0 min 0 W/m 29,0 km/h (5 Bft) 95,65 %
29.01.2022 22:44 8,3 C 7,2 C 4,4 C 83 % 1025,5 hPa 0,0 l/m 0 min 0 min 0 W/m 25,7 km/h (4 Bft) 95,74 %
29.01.2022 22:46 8,3 C 7,2 C 4,4 C 83 % 1025,5 hPa 0,0 l/m 0 min 0 min 0 W/m 29,0 km/h (5 Bft) 95,74 %
29.01.2022 22:48 8,3 C 7,2 C 4,4 C 82 % 1025,5 hPa 0,0 l/m 0 min 0 min 0 W/m 32,2 km/h (5 Bft) 95,74 %
29.01.2022 22:50 8,2 C 7,2 C 4,4 C 82 % 1025,5 hPa 0,0 l/m 0 min 0 min 0 W/m 25,7 km/h (4 Bft) 95,74 %
29.01.2022 22:52 8,2 C 7,2 C 4,4 C 82 % 1025,4 hPa 0,0 l/m 0 min 0 min 0 W/m 35,4 km/h (5 Bft) 95,74 %
29.01.2022 22:54 8,2 C 7,2 C 4,4 C 82 % 1025,5 hPa 0,0 l/m 0 min 0 min 0 W/m 32,2 km/h (5 Bft) 95,65 %
29.01.2022 22:56 8,2 C 7,2 C 4,4 C 82 % 1025,5 hPa 0,0 l/m 0 min 0 min 0 W/m 25,7 km/h (4 Bft) 97,87 %
29.01.2022 22:58 8,2 C 7,2 C 4,4 C 82 % 1025,5 hPa 0,0 l/m 0 min 0 min 0 W/m 25,7 km/h (4 Bft) 100,00 %
29.01.2022 23:00 8,1 C 7,2 C 4,4 C 82 % 1025,6 hPa 0,0 l/m 0 min 0 min 0 W/m 29,0 km/h (5 Bft) 100,00 %
29.01.2022 23:02 8,1 C 7,2 C 4,4 C 82 % 1025,5 hPa 0,0 l/m 0 min 0 min 0 W/m 32,2 km/h (5 Bft) 50,00 %
29.01.2022 23:04 8,1 C 7,2 C 4,4 C 82 % 1025,4 hPa 0,0 l/m 0 min 0 min 0 W/m 22,5 km/h (4 Bft) 100,00 %
29.01.2022 23:06 8,0 C 7,2 C 4,4 C 82 % 1025,5 hPa 0,0 l/m 0 min 0 min 0 W/m 16,1 km/h (3 Bft) 97,83 %
29.01.2022 23:08 8,0 C 7,2 C 3,9 C 82 % 1025,5 hPa 0,0 l/m 0 min 0 min 0 W/m 19,3 km/h (3 Bft) 97,87 %
29.01.2022 23:10 7,9 C 7,2 C 3,9 C 82 % 1025,5 hPa 0,0 l/m 0 min 0 min 0 W/m 16,1 km/h (3 Bft) 95,74 %
29.01.2022 23:12 7,9 C 7,2 C 3,9 C 83 % 1025,5 hPa 0,0 l/m 0 min 0 min 0 W/m 16,1 km/h (3 Bft) 97,87 %
29.01.2022 23:14 7,9 C 6,7 C 3,9 C 82 % 1025,4 hPa 0,0 l/m 0 min 0 min 0 W/m 16,1 km/h (3 Bft) 97,87 %
29.01.2022 23:16 7,8 C 6,7 C 3,9 C 83 % 1025,4 hPa 0,0 l/m 0 min 0 min 0 W/m 16,1 km/h (3 Bft) 97,87 %
29.01.2022 23:18 7,8 C 6,7 C 3,9 C 83 % 1025,5 hPa 0,0 l/m 0 min 0 min 0 W/m 16,1 km/h (3 Bft) 97,87 %
29.01.2022 23:20 7,8 C 6,7 C 3,9 C 83 % 1025,4 hPa 0,0 l/m 0 min 0 min 0 W/m 16,1 km/h (3 Bft) 97,44 %
29.01.2022 23:22 7,7 C 6,7 C 3,9 C 83 % 1025,5 hPa 0,0 l/m 0 min 0 min 0 W/m 16,1 km/h (3 Bft) 97,87 %
29.01.2022 23:24 7,7 C 6,7 C 3,9 C 83 % 1025,5 hPa 0,0 l/m 0 min 0 min 0 W/m 16,1 km/h (3 Bft) 97,83 %
29.01.2022 23:26 7,7 C 6,7 C 3,9 C 83 % 1025,5 hPa 0,0 l/m 0 min 0 min 0 W/m 9,7 km/h (2 Bft) 97,87 %
29.01.2022 23:28 7,6 C 6,7 C 3,9 C 84 % 1025,5 hPa 0,0 l/m 0 min 0 min 0 W/m 9,7 km/h (2 Bft) 97,87 %
29.01.2022 23:30 7,6 C 6,7 C 3,9 C 84 % 1025,6 hPa 0,0 l/m 0 min 0 min 0 W/m 12,9 km/h (3 Bft) 95,74 %
29.01.2022 23:32 7,6 C 6,7 C 3,9 C 84 % 1025,6 hPa 0,0 l/m 0 min 0 min 0 W/m 19,3 km/h (3 Bft) 97,87 %
29.01.2022 23:34 7,5 C 6,7 C 3,9 C 84 % 1025,6 hPa 0,0 l/m 0 min 0 min 0 W/m 25,7 km/h (4 Bft) 95,65 %
29.01.2022 23:36 7,5 C 6,7 C 3,9 C 84 % 1025,6 hPa 0,0 l/m 0 min 0 min 0 W/m 19,3 km/h (3 Bft) 97,87 %
29.01.2022 23:38 7,5 C 6,7 C 3,9 C 84 % 1025,6 hPa 0,0 l/m 0 min 0 min 0 W/m 12,9 km/h (3 Bft) 100,00 %
29.01.2022 23:40 7,5 C 6,7 C 3,9 C 84 % 1025,7 hPa 0,0 l/m 0 min 0 min 0 W/m 12,9 km/h (3 Bft) 97,87 %
29.01.2022 23:42 7,4 C 6,7 C 3,9 C 85 % 1025,7 hPa 0,0 l/m 0 min 0 min 0 W/m 12,9 km/h (3 Bft) 100,00 %
29.01.2022 23:44 7,4 C 6,7 C 3,9 C 85 % 1025,8 hPa 0,0 l/m 0 min 0 min 0 W/m 22,5 km/h (4 Bft) 100,00 %
29.01.2022 23:46 7,4 C 6,7 C 3,3 C 85 % 1025,7 hPa 0,0 l/m 0 min 0 min 0 W/m 16,1 km/h (3 Bft) 100,00 %
29.01.2022 23:48 7,4 C 6,7 C 3,3 C 85 % 1025,8 hPa 0,0 l/m 0 min 0 min 0 W/m 12,9 km/h (3 Bft) 100,00 %
29.01.2022 23:50 7,4 C 6,7 C 3,3 C 85 % 1025,8 hPa 0,0 l/m 0 min 0 min 0 W/m 16,1 km/h (3 Bft) 100,00 %
29.01.2022 23:52 7,4 C 6,7 C 3,3 C 85 % 1025,8 hPa 0,0 l/m 0 min 0 min 0 W/m 19,3 km/h (3 Bft) 100,00 %
29.01.2022 23:54 7,4 C 6,7 C 3,9 C 85 % 1025,8 hPa 0,0 l/m 0 min 0 min 0 W/m 19,3 km/h (3 Bft) 97,87 %
29.01.2022 23:56 7,4 C 6,7 C 3,9 C 85 % 1025,8 hPa 0,0 l/m 0 min 0 min 0 W/m 16,1 km/h (3 Bft) 100,00 %
29.01.2022 23:58 7,4 C 6,7 C 3,9 C 85 % 1025,9 hPa 0,0 l/m 0 min 0 min 0 W/m 12,9 km/h (3 Bft) 100,00 %
_ Min-Zeit 00:04 00:00 00:00 22:48 17:24 - - - - 00:58 23:02
Minimum _ 5,3 C 5,0 C 2,2 C 82 % 1021,5 hPa - - - - 6,4 km/h (2 Bft) 50,00 %
_ Max-Zeit 18:38 14:28 14:32 06:52 00:00 19:50 13:58 11:52 13:58 20:04 00:08
Maximum _ 10,3 C 10,0 C 7,8 C 98 % 1031,5 hPa 0,2 l/m 2 min 2 min 186 W/m 57,9 km/h
W-NW (7 Bft)
100,00 %
Durchschnitt _ 8,0 C 7,3 C 4,9 C 93 % 1025,3 hPa #0,2 l/m #2 min. #1:02 h 47 W/m 20,7 km/h (4 Bft) 97,50 %
© 2022 W. Hausmann